Wetterdaten: Donnerstag, 10.10.2019
Datum Zeit Temp. Aussen Temp. o. S. Temp +5cm Feuchte Auss Luftdruck Regen Sonnenschein Regendauer Solar Windben Empfang
10.10.2019 00:00 10,8 C 10,0 C 9,4 C 90 % 1007,9 hPa 0,0 l/m 0 min 0 min 0 W/m 19,3 km/h (3 Bft) 97,87 %
10.10.2019 00:02 10,8 C 9,4 C 9,4 C 90 % 1008,0 hPa 0,0 l/m 0 min 0 min 0 W/m 19,3 km/h (3 Bft) 100,00 %
10.10.2019 00:04 10,7 C 9,4 C 9,4 C 90 % 1008,0 hPa 0,0 l/m 0 min 0 min 0 W/m 16,1 km/h (3 Bft) 100,00 %
10.10.2019 00:08 10,7 C 9,4 C 9,4 C 90 % 1008,1 hPa 0,0 l/m 0 min 0 min 0 W/m 19,3 km/h (3 Bft) 96,77 %
10.10.2019 00:10 10,7 C 9,4 C 9,4 C 90 % 1008,1 hPa 0,0 l/m 0 min 0 min 0 W/m 16,1 km/h (3 Bft) 100,00 %
10.10.2019 00:12 10,6 C 9,4 C 9,4 C 90 % 1008,1 hPa 0,0 l/m 0 min 0 min 0 W/m 19,3 km/h (3 Bft) 100,00 %
10.10.2019 00:14 10,6 C 9,4 C 9,4 C 90 % 1008,0 hPa 0,0 l/m 0 min 0 min 0 W/m 25,7 km/h (4 Bft) 100,00 %
10.10.2019 00:16 10,6 C 9,4 C 9,4 C 90 % 1008,1 hPa 0,0 l/m 0 min 0 min 0 W/m 12,9 km/h (3 Bft) 97,87 %
10.10.2019 00:18 10,6 C 9,4 C 9,4 C 90 % 1008,1 hPa 0,0 l/m 0 min 0 min 0 W/m 25,7 km/h (4 Bft) 100,00 %
10.10.2019 00:20 10,6 C 9,4 C 9,4 C 90 % 1008,0 hPa 0,0 l/m 0 min 0 min 0 W/m 25,7 km/h (4 Bft) 100,00 %
10.10.2019 00:22 10,6 C 9,4 C 9,4 C 90 % 1008,0 hPa 0,0 l/m 0 min 0 min 0 W/m 22,5 km/h (4 Bft) 100,00 %
10.10.2019 00:24 10,5 C 9,4 C 9,4 C 90 % 1008,1 hPa 0,0 l/m 0 min 0 min 0 W/m 12,9 km/h (3 Bft) 100,00 %
10.10.2019 00:26 10,5 C 9,4 C 9,4 C 90 % 1008,1 hPa 0,0 l/m 0 min 0 min 0 W/m 29,0 km/h (5 Bft) 97,87 %
10.10.2019 00:28 10,5 C 9,4 C 9,4 C 90 % 1008,0 hPa 0,0 l/m 0 min 0 min 0 W/m 16,1 km/h (3 Bft) 97,87 %
10.10.2019 00:30 10,5 C 9,4 C 9,4 C 90 % 1008,0 hPa 0,0 l/m 0 min 0 min 0 W/m 25,7 km/h (4 Bft) 97,14 %
10.10.2019 00:32 10,5 C 9,4 C 9,4 C 90 % 1008,0 hPa 0,0 l/m 0 min 0 min 0 W/m 16,1 km/h (3 Bft) 96,67 %
10.10.2019 00:34 10,4 C 9,4 C 9,4 C 90 % 1008,0 hPa 0,0 l/m 0 min 0 min 0 W/m 25,7 km/h (4 Bft) 97,83 %
10.10.2019 00:36 10,4 C 9,4 C 9,4 C 89 % 1008,0 hPa 0,0 l/m 0 min 0 min 0 W/m 16,1 km/h (3 Bft) 95,74 %
10.10.2019 00:38 10,4 C 9,4 C 9,4 C 89 % 1007,9 hPa 0,0 l/m 0 min 0 min 0 W/m 12,9 km/h (3 Bft) 97,87 %
10.10.2019 00:40 10,4 C 9,4 C 9,4 C 89 % 1008,0 hPa 0,0 l/m 0 min 0 min 0 W/m 19,3 km/h (3 Bft) 97,87 %
10.10.2019 00:42 10,4 C 9,4 C 9,4 C 89 % 1008,0 hPa 0,0 l/m 0 min 0 min 0 W/m 25,7 km/h (4 Bft) 95,74 %
10.10.2019 00:44 10,4 C 9,4 C 9,4 C 89 % 1008,0 hPa 0,0 l/m 0 min 0 min 0 W/m 16,1 km/h (3 Bft) 97,87 %
10.10.2019 00:46 10,4 C 9,4 C 9,4 C 89 % 1008,0 hPa 0,0 l/m 0 min 0 min 0 W/m 32,2 km/h (5 Bft) 95,74 %
10.10.2019 00:48 10,4 C 9,4 C 9,4 C 89 % 1008,1 hPa 0,0 l/m 0 min 0 min 0 W/m 32,2 km/h (5 Bft) 97,83 %
10.10.2019 00:50 10,4 C 10,0 C 9,4 C 89 % 1008,0 hPa 0,0 l/m 0 min 0 min 0 W/m 25,7 km/h (4 Bft) 97,87 %
10.10.2019 00:52 10,4 C 10,0 C 9,4 C 89 % 1008,0 hPa 0,0 l/m 0 min 0 min 0 W/m 22,5 km/h (4 Bft) 93,62 %
10.10.2019 00:54 10,4 C 10,0 C 9,4 C 89 % 1008,0 hPa 0,0 l/m 0 min 0 min 0 W/m 25,7 km/h (4 Bft) 97,87 %
10.10.2019 00:56 10,4 C 10,0 C 9,4 C 89 % 1007,9 hPa 0,0 l/m 0 min 0 min 0 W/m 32,2 km/h (5 Bft) 97,87 %
10.10.2019 00:58 10,4 C 10,0 C 9,4 C 89 % 1007,9 hPa 0,0 l/m 0 min 0 min 0 W/m 16,1 km/h (3 Bft) 93,48 %
10.10.2019 01:00 10,4 C 9,4 C 9,4 C 89 % 1007,9 hPa 0,0 l/m 0 min 0 min 0 W/m 19,3 km/h (3 Bft) 97,87 %
10.10.2019 01:02 10,4 C 10,0 C 9,4 C 89 % 1008,0 hPa 0,0 l/m 0 min 0 min 0 W/m 35,4 km/h (5 Bft) 97,87 %
10.10.2019 01:04 10,4 C 10,0 C 9,4 C 89 % 1008,0 hPa 0,0 l/m 0 min 0 min 0 W/m 25,7 km/h (4 Bft) 95,74 %
10.10.2019 01:06 10,4 C 9,4 C 9,4 C 89 % 1007,9 hPa 0,0 l/m 0 min 0 min 0 W/m 16,1 km/h (3 Bft) 93,62 %
10.10.2019 01:08 10,4 C 9,4 C 9,4 C 89 % 1007,9 hPa 0,0 l/m 0 min 0 min 0 W/m 12,9 km/h (3 Bft) 97,87 %
10.10.2019 01:10 10,4 C 9,4 C 9,4 C 89 % 1007,8 hPa 0,0 l/m 0 min 0 min 0 W/m 32,2 km/h (5 Bft) 93,48 %
10.10.2019 01:12 10,4 C 9,4 C 9,4 C 89 % 1007,8 hPa 0,0 l/m 0 min 0 min 0 W/m 16,1 km/h (3 Bft) 97,87 %
10.10.2019 01:14 10,4 C 9,4 C 9,4 C 88 % 1008,0 hPa 0,0 l/m 0 min 0 min 0 W/m 19,3 km/h (3 Bft) 100,00 %
10.10.2019 01:16 10,4 C 9,4 C 9,4 C 88 % 1007,9 hPa 0,0 l/m 0 min 0 min 0 W/m 16,1 km/h (3 Bft) 97,87 %
10.10.2019 01:18 10,4 C 9,4 C 9,4 C 88 % 1007,9 hPa 0,0 l/m 0 min 0 min 0 W/m 29,0 km/h (5 Bft) 97,87 %
10.10.2019 01:20 10,4 C 9,4 C 9,4 C 88 % 1007,9 hPa 0,0 l/m 0 min 0 min 0 W/m 16,1 km/h (3 Bft) 97,87 %
10.10.2019 01:22 10,4 C 9,4 C 9,4 C 88 % 1008,0 hPa 0,0 l/m 0 min 0 min 0 W/m 16,1 km/h (3 Bft) 95,65 %
10.10.2019 01:24 10,4 C 9,4 C 9,4 C 88 % 1008,1 hPa 0,0 l/m 0 min 0 min 0 W/m 19,3 km/h (3 Bft) 95,74 %
10.10.2019 01:26 10,4 C 9,4 C 9,4 C 88 % 1008,0 hPa 0,0 l/m 0 min 0 min 0 W/m 22,5 km/h (4 Bft) 93,62 %
10.10.2019 01:28 10,4 C 9,4 C 9,4 C 88 % 1008,0 hPa 0,0 l/m 0 min 0 min 0 W/m 29,0 km/h (5 Bft) 95,74 %
10.10.2019 01:30 10,4 C 9,4 C 9,4 C 88 % 1008,0 hPa 0,0 l/m 0 min 0 min 0 W/m 12,9 km/h (3 Bft) 97,87 %
10.10.2019 01:32 10,4 C 9,4 C 9,4 C 88 % 1008,0 hPa 0,0 l/m 0 min 0 min 0 W/m 16,1 km/h (3 Bft) 97,87 %
10.10.2019 01:34 10,4 C 9,4 C 9,4 C 88 % 1008,0 hPa 0,0 l/m 0 min 0 min 0 W/m 12,9 km/h (3 Bft) 95,65 %
10.10.2019 01:36 10,4 C 9,4 C 9,4 C 88 % 1008,0 hPa 0,0 l/m 0 min 0 min 0 W/m 22,5 km/h (4 Bft) 93,62 %
10.10.2019 01:38 10,4 C 9,4 C 9,4 C 88 % 1008,0 hPa 0,0 l/m 0 min 0 min 0 W/m 16,1 km/h (3 Bft) 95,74 %
10.10.2019 01:40 10,4 C 9,4 C 9,4 C 88 % 1008,1 hPa 0,0 l/m 0 min 0 min 0 W/m 19,3 km/h (3 Bft) 97,87 %
10.10.2019 01:42 10,4 C 10,0 C 9,4 C 88 % 1008,0 hPa 0,0 l/m 0 min 0 min 0 W/m 19,3 km/h (3 Bft) 97,87 %
10.10.2019 01:44 10,4 C 10,0 C 9,4 C 88 % 1008,0 hPa 0,0 l/m 0 min 0 min 0 W/m 12,9 km/h (3 Bft) 97,83 %
10.10.2019 01:46 10,4 C 10,0 C 9,4 C 88 % 1008,0 hPa 0,0 l/m 0 min 0 min 0 W/m 25,7 km/h (4 Bft) 95,74 %
10.10.2019 01:48 10,4 C 10,0 C 9,4 C 88 % 1007,9 hPa 0,0 l/m 0 min 0 min 0 W/m 16,1 km/h (3 Bft) 97,87 %
10.10.2019 01:50 10,4 C 10,0 C 9,4 C 88 % 1008,0 hPa 0,0 l/m 0 min 0 min 0 W/m 16,1 km/h (3 Bft) 97,87 %
10.10.2019 01:52 10,4 C 10,0 C 9,4 C 88 % 1007,9 hPa 0,0 l/m 0 min 0 min 0 W/m 16,1 km/h (3 Bft) 97,87 %
10.10.2019 01:54 10,4 C 10,0 C 9,4 C 88 % 1007,9 hPa 0,0 l/m 0 min 0 min 0 W/m 12,9 km/h (3 Bft) 95,74 %
10.10.2019 01:56 10,4 C 10,0 C 9,4 C 88 % 1008,0 hPa 0,0 l/m 0 min 0 min 0 W/m 22,5 km/h (4 Bft) 95,74 %
10.10.2019 01:58 10,4 C 10,0 C 9,4 C 88 % 1008,0 hPa 0,0 l/m 0 min 0 min 0 W/m 19,3 km/h (3 Bft) 97,83 %
10.10.2019 02:00 10,4 C 10,0 C 9,4 C 88 % 1008,0 hPa 0,0 l/m 0 min 0 min 0 W/m 19,3 km/h (3 Bft) 97,96 %
10.10.2019 02:02 10,4 C 10,0 C 9,4 C 88 % 1007,9 hPa 0,0 l/m 0 min 0 min 0 W/m 19,3 km/h (3 Bft) 95,65 %
10.10.2019 02:04 10,4 C 10,0 C 9,4 C 88 % 1008,0 hPa 0,0 l/m 0 min 0 min 0 W/m 16,1 km/h (3 Bft) 97,87 %
10.10.2019 02:06 10,4 C 10,0 C 9,4 C 88 % 1008,0 hPa 0,0 l/m 0 min 0 min 0 W/m 22,5 km/h (4 Bft) 97,87 %
10.10.2019 02:08 10,5 C 10,0 C 9,4 C 88 % 1007,9 hPa 0,0 l/m 0 min 0 min 0 W/m 19,3 km/h (3 Bft) 100,00 %
10.10.2019 02:10 10,5 C 10,0 C 9,4 C 88 % 1008,0 hPa 0,0 l/m 0 min 0 min 0 W/m 12,9 km/h (3 Bft) 100,00 %
10.10.2019 02:12 10,5 C 10,0 C 9,4 C 88 % 1007,9 hPa 0,0 l/m 0 min 0 min 0 W/m 22,5 km/h (4 Bft) 100,00 %
10.10.2019 02:14 10,5 C 10,0 C 9,4 C 88 % 1007,9 hPa 0,0 l/m 0 min 0 min 0 W/m 19,3 km/h (3 Bft) 100,00 %
10.10.2019 02:16 10,6 C 10,0 C 9,4 C 88 % 1007,9 hPa 0,0 l/m 0 min 0 min 0 W/m 16,1 km/h (3 Bft) 100,00 %
10.10.2019 02:18 10,6 C 10,0 C 9,4 C 88 % 1008,0 hPa 0,0 l/m 0 min 0 min 0 W/m 16,1 km/h (3 Bft) 100,00 %
10.10.2019 02:20 10,6 C 10,0 C 9,4 C 88 % 1008,0 hPa 0,0 l/m 0 min 0 min 0 W/m 12,9 km/h (3 Bft) 97,87 %
10.10.2019 02:22 10,6 C 10,0 C 9,4 C 88 % 1008,0 hPa 0,0 l/m 0 min 0 min 0 W/m 22,5 km/h (4 Bft) 100,00 %
10.10.2019 02:24 10,6 C 10,0 C 9,4 C 88 % 1007,9 hPa 0,0 l/m 0 min 0 min 0 W/m 16,1 km/h (3 Bft) 100,00 %
10.10.2019 02:26 10,6 C 10,0 C 9,4 C 89 % 1008,0 hPa 0,0 l/m 0 min 0 min 0 W/m 16,1 km/h (3 Bft) 100,00 %
10.10.2019 02:28 10,6 C 10,0 C 9,4 C 89 % 1008,0 hPa 0,0 l/m 0 min 0 min 0 W/m 16,1 km/h (3 Bft) 97,87 %
10.10.2019 02:30 10,6 C 10,0 C 9,4 C 89 % 1008,0 hPa 0,0 l/m 0 min 0 min 0 W/m 19,3 km/h (3 Bft) 97,87 %
10.10.2019 02:32 10,6 C 10,0 C 9,4 C 89 % 1008,0 hPa 0,0 l/m 0 min 0 min 0 W/m 22,5 km/h (4 Bft) 97,87 %
10.10.2019 02:34 10,6 C 10,0 C 9,4 C 89 % 1008,0 hPa 0,0 l/m 0 min 0 min 0 W/m 16,1 km/h (3 Bft) 100,00 %
10.10.2019 02:36 10,6 C 10,0 C 9,4 C 89 % 1008,0 hPa 0,0 l/m 0 min 0 min 0 W/m 22,5 km/h (4 Bft) 100,00 %
10.10.2019 02:38 10,7 C 10,0 C 9,4 C 89 % 1008,0 hPa 0,0 l/m 0 min 0 min 0 W/m 16,1 km/h (3 Bft) 97,83 %
10.10.2019 02:40 10,7 C 10,0 C 9,4 C 89 % 1007,9 hPa 0,0 l/m 0 min 0 min 0 W/m 16,1 km/h (3 Bft) 100,00 %
10.10.2019 02:42 10,7 C 10,0 C 9,4 C 89 % 1008,0 hPa 0,0 l/m 0 min 0 min 0 W/m 16,1 km/h (3 Bft) 100,00 %
10.10.2019 02:44 10,7 C 10,0 C 9,4 C 89 % 1008,0 hPa 0,0 l/m 0 min 0 min 0 W/m 12,9 km/h (3 Bft) 100,00 %
10.10.2019 02:46 10,7 C 10,0 C 9,4 C 89 % 1008,0 hPa 0,0 l/m 0 min 0 min 0 W/m 12,9 km/h (3 Bft) 97,87 %
10.10.2019 02:48 10,7 C 10,0 C 9,4 C 89 % 1008,0 hPa 0,0 l/m 0 min 0 min 0 W/m 25,7 km/h (4 Bft) 97,87 %
10.10.2019 02:50 10,7 C 10,0 C 9,4 C 89 % 1008,0 hPa 0,0 l/m 0 min 0 min 0 W/m 19,3 km/h (3 Bft) 100,00 %
10.10.2019 02:52 10,7 C 10,0 C 9,4 C 89 % 1007,9 hPa 0,0 l/m 0 min 0 min 0 W/m 16,1 km/h (3 Bft) 95,74 %
10.10.2019 02:54 10,7 C 10,0 C 9,4 C 89 % 1008,0 hPa 0,0 l/m 0 min 0 min 0 W/m 22,5 km/h (4 Bft) 97,87 %
10.10.2019 02:56 10,7 C 10,0 C 9,4 C 89 % 1008,0 hPa 0,0 l/m 0 min 0 min 0 W/m 19,3 km/h (3 Bft) 97,87 %
10.10.2019 02:58 10,7 C 10,0 C 9,4 C 90 % 1008,0 hPa 0,0 l/m 0 min 0 min 0 W/m 19,3 km/h (3 Bft) 95,74 %
10.10.2019 03:00 10,7 C 10,0 C 9,4 C 90 % 1008,0 hPa 0,0 l/m 0 min 0 min 0 W/m 22,5 km/h (4 Bft) 97,87 %
10.10.2019 03:02 10,7 C 10,0 C 9,4 C 90 % 1008,0 hPa 0,0 l/m 0 min 0 min 0 W/m 25,7 km/h (4 Bft) 93,48 %
10.10.2019 03:04 10,7 C 10,0 C 9,4 C 90 % 1008,1 hPa 0,0 l/m 0 min 0 min 0 W/m 12,9 km/h (3 Bft) 97,87 %
10.10.2019 03:06 10,8 C 10,0 C 9,4 C 90 % 1008,0 hPa 0,0 l/m 0 min 0 min 0 W/m 12,9 km/h (3 Bft) 97,87 %
10.10.2019 03:08 10,8 C 10,0 C 10,0 C 90 % 1008,0 hPa 0,0 l/m 0 min 0 min 0 W/m 22,5 km/h (4 Bft) 97,87 %
10.10.2019 03:10 10,8 C 10,0 C 9,4 C 90 % 1008,0 hPa 0,0 l/m 0 min 0 min 0 W/m 19,3 km/h (3 Bft) 95,74 %
10.10.2019 03:12 10,8 C 10,0 C 9,4 C 90 % 1007,9 hPa 0,0 l/m 0 min 0 min 0 W/m 16,1 km/h (3 Bft) 95,74 %
10.10.2019 03:14 10,8 C 10,0 C 9,4 C 90 % 1007,9 hPa 0,0 l/m 0 min 0 min 0 W/m 12,9 km/h (3 Bft) 95,65 %
10.10.2019 03:16 10,8 C 10,0 C 9,4 C 90 % 1007,9 hPa 0,0 l/m 0 min 0 min 0 W/m 16,1 km/h (3 Bft) 91,49 %
10.10.2019 03:18 10,8 C 10,0 C 9,4 C 90 % 1007,9 hPa 0,0 l/m 0 min 0 min 0 W/m 19,3 km/h (3 Bft) 95,74 %
10.10.2019 03:20 10,8 C 10,0 C 9,4 C 90 % 1007,9 hPa 0,0 l/m 0 min 0 min 0 W/m 12,9 km/h (3 Bft) 95,74 %
10.10.2019 03:22 10,8 C 10,0 C 10,0 C 90 % 1008,0 hPa 0,0 l/m 0 min 0 min 0 W/m 19,3 km/h (3 Bft) 95,74 %
10.10.2019 03:24 10,8 C 10,0 C 9,4 C 90 % 1008,0 hPa 0,0 l/m 0 min 0 min 0 W/m 9,7 km/h (2 Bft) 93,48 %
10.10.2019 03:26 10,8 C 10,0 C 9,4 C 90 % 1008,0 hPa 0,0 l/m 0 min 0 min 0 W/m 16,1 km/h (3 Bft) 95,74 %
10.10.2019 03:28 10,8 C 10,0 C 10,0 C 90 % 1008,1 hPa 0,0 l/m 0 min 0 min 0 W/m 22,5 km/h (4 Bft) 95,74 %
10.10.2019 03:30 10,8 C 10,0 C 10,0 C 90 % 1008,0 hPa 0,0 l/m 0 min 0 min 0 W/m 22,5 km/h (4 Bft) 93,62 %
10.10.2019 03:32 10,8 C 10,0 C 10,0 C 90 % 1008,0 hPa 0,0 l/m 0 min 0 min 0 W/m 16,1 km/h (3 Bft) 95,74 %
10.10.2019 03:34 10,8 C 10,0 C 10,0 C 90 % 1008,0 hPa 0,0 l/m 0 min 0 min 0 W/m 22,5 km/h (4 Bft) 89,36 %
10.10.2019 03:36 10,8 C 10,0 C 10,0 C 90 % 1008,1 hPa 0,0 l/m 0 min 0 min 0 W/m 19,3 km/h (3 Bft) 95,65 %
10.10.2019 03:38 10,8 C 10,0 C 9,4 C 89 % 1008,1 hPa 0,0 l/m 0 min 0 min 0 W/m 19,3 km/h (3 Bft) 95,74 %
10.10.2019 03:40 10,8 C 10,0 C 9,4 C 89 % 1008,0 hPa 0,0 l/m 0 min 0 min 0 W/m 12,9 km/h (3 Bft) 95,74 %
10.10.2019 03:42 10,8 C 10,0 C 9,4 C 89 % 1008,1 hPa 0,0 l/m 0 min 0 min 0 W/m 16,1 km/h (3 Bft) 95,74 %
10.10.2019 03:44 10,8 C 10,0 C 9,4 C 89 % 1008,1 hPa 0,0 l/m 0 min 0 min 0 W/m 12,9 km/h (3 Bft) 95,74 %
10.10.2019 03:46 10,8 C 10,0 C 9,4 C 89 % 1008,1 hPa 0,0 l/m 0 min 0 min 0 W/m 25,7 km/h (4 Bft) 97,87 %
10.10.2019 03:48 10,8 C 10,0 C 9,4 C 89 % 1008,1 hPa 0,0 l/m 0 min 0 min 0 W/m 6,4 km/h (2 Bft) 97,83 %
10.10.2019 03:50 10,8 C 10,0 C 9,4 C 89 % 1008,1 hPa 0,0 l/m 0 min 0 min 0 W/m 9,7 km/h (2 Bft) 97,87 %
10.10.2019 03:52 10,8 C 10,0 C 9,4 C 89 % 1008,1 hPa 0,0 l/m 0 min 0 min 0 W/m 19,3 km/h (3 Bft) 95,74 %
10.10.2019 03:54 10,8 C 10,0 C 9,4 C 89 % 1008,1 hPa 0,0 l/m 0 min 0 min 0 W/m 12,9 km/h (3 Bft) 95,74 %
10.10.2019 03:56 10,8 C 10,0 C 9,4 C 89 % 1008,1 hPa 0,0 l/m 0 min 0 min 0 W/m 22,5 km/h (4 Bft) 100,00 %
10.10.2019 03:58 10,8 C 10,0 C 9,4 C 89 % 1008,0 hPa 0,0 l/m 0 min 0 min 0 W/m 9,7 km/h (2 Bft) 95,74 %
10.10.2019 04:00 10,8 C 10,0 C 9,4 C 89 % 1008,1 hPa 0,0 l/m 0 min 0 min 0 W/m 6,4 km/h (2 Bft) 100,00 %
10.10.2019 04:02 10,8 C 10,0 C 9,4 C 90 % 1008,0 hPa 0,0 l/m 0 min 0 min 0 W/m 6,4 km/h (2 Bft) 100,00 %
10.10.2019 04:04 10,8 C 10,0 C 9,4 C 90 % 1008,0 hPa 0,0 l/m 0 min 0 min 0 W/m 12,9 km/h (3 Bft) 97,87 %
10.10.2019 04:06 10,8 C 10,0 C 9,4 C 90 % 1008,1 hPa 0,0 l/m 0 min 0 min 0 W/m 12,9 km/h (3 Bft) 59,57 %
10.10.2019 04:08 10,7 C 10,0 C 9,4 C 90 % 1008,1 hPa 0,0 l/m 0 min 0 min 0 W/m 16,1 km/h (3 Bft) 97,30 %
10.10.2019 04:10 10,7 C 10,0 C 9,4 C 90 % 1008,1 hPa 0,0 l/m 0 min 0 min 0 W/m 9,7 km/h (2 Bft) 100,00 %
10.10.2019 04:12 10,7 C 10,0 C 9,4 C 90 % 1008,1 hPa 0,0 l/m 0 min 0 min 0 W/m 9,7 km/h (2 Bft) 97,83 %
10.10.2019 04:14 10,7 C 10,0 C 9,4 C 90 % 1008,1 hPa 0,0 l/m 0 min 0 min 0 W/m 16,1 km/h (3 Bft) 97,87 %
10.10.2019 04:16 10,7 C 10,0 C 9,4 C 90 % 1008,1 hPa 0,0 l/m 0 min 0 min 0 W/m 12,9 km/h (3 Bft) 97,87 %
10.10.2019 04:18 10,7 C 10,0 C 9,4 C 90 % 1008,1 hPa 0,0 l/m 0 min 0 min 0 W/m 6,4 km/h (2 Bft) 97,87 %
10.10.2019 04:20 10,7 C 9,4 C 8,9 C 90 % 1008,2 hPa 0,0 l/m 0 min 2 min 0 W/m 6,4 km/h (2 Bft) 97,87 %
10.10.2019 04:22 10,7 C 8,9 C 8,9 C 90 % 1008,1 hPa 0,2 l/m 0 min 2 min 0 W/m 12,9 km/h (3 Bft) 97,87 %
10.10.2019 04:24 10,7 C 8,9 C 8,3 C 90 % 1008,2 hPa 0,0 l/m 0 min 2 min 0 W/m 9,7 km/h (2 Bft) 97,83 %
10.10.2019 04:26 10,7 C 8,9 C 8,3 C 91 % 1008,2 hPa 0,0 l/m 0 min 2 min 0 W/m 6,4 km/h (2 Bft) 97,87 %
10.10.2019 04:28 10,7 C 8,3 C 8,3 C 91 % 1008,3 hPa 0,0 l/m 0 min 0 min 0 W/m 12,9 km/h (3 Bft) 97,87 %
10.10.2019 04:30 10,7 C 8,9 C 8,3 C 91 % 1008,2 hPa 0,0 l/m 0 min 0 min 0 W/m 12,9 km/h (3 Bft) 97,87 %
10.10.2019 04:32 10,6 C 8,9 C 8,3 C 91 % 1008,2 hPa 0,0 l/m 0 min 0 min 0 W/m 6,4 km/h (2 Bft) 97,87 %
10.10.2019 04:34 10,6 C 8,9 C 8,3 C 91 % 1008,3 hPa 0,0 l/m 0 min 0 min 0 W/m 6,4 km/h (2 Bft) 97,87 %
10.10.2019 04:36 10,6 C 8,9 C 8,3 C 91 % 1008,3 hPa 0,0 l/m 0 min 0 min 0 W/m 6,4 km/h (2 Bft) 97,83 %
10.10.2019 04:38 10,6 C 8,9 C 8,3 C 91 % 1008,3 hPa 0,0 l/m 0 min 0 min 0 W/m 6,4 km/h (2 Bft) 95,74 %
10.10.2019 04:40 10,6 C 8,9 C 8,3 C 91 % 1008,4 hPa 0,0 l/m 0 min 0 min 0 W/m 9,7 km/h (2 Bft) 97,87 %
10.10.2019 04:42 10,5 C 8,9 C 8,3 C 92 % 1008,3 hPa 0,0 l/m 0 min 0 min 0 W/m 9,7 km/h (2 Bft) 97,87 %
10.10.2019 04:44 10,5 C 8,9 C 8,3 C 92 % 1008,3 hPa 0,0 l/m 0 min 0 min 0 W/m 6,4 km/h (2 Bft) 97,87 %
10.10.2019 04:46 10,5 C 8,9 C 8,3 C 92 % 1008,3 hPa 0,0 l/m 0 min 0 min 0 W/m 6,4 km/h (2 Bft) 97,87 %
10.10.2019 04:48 10,4 C 8,9 C 8,3 C 92 % 1008,4 hPa 0,0 l/m 0 min 0 min 0 W/m 6,4 km/h (2 Bft) 95,65 %
10.10.2019 04:50 10,4 C 8,9 C 8,3 C 92 % 1008,4 hPa 0,0 l/m 0 min 0 min 0 W/m 6,4 km/h (2 Bft) 97,87 %
10.10.2019 04:52 10,4 C 8,9 C 8,3 C 92 % 1008,4 hPa 0,0 l/m 0 min 0 min 0 W/m 12,9 km/h (3 Bft) 97,87 %
10.10.2019 04:54 10,4 C 8,9 C 8,3 C 92 % 1008,4 hPa 0,0 l/m 0 min 0 min 0 W/m 12,9 km/h (3 Bft) 97,87 %
10.10.2019 04:56 10,3 C 8,9 C 8,3 C 92 % 1008,4 hPa 0,0 l/m 0 min 0 min 0 W/m 16,1 km/h (3 Bft) 97,87 %
10.10.2019 04:58 10,3 C 8,9 C 8,3 C 92 % 1008,4 hPa 0,0 l/m 0 min 0 min 0 W/m 19,3 km/h (3 Bft) 97,83 %
10.10.2019 05:00 10,3 C 8,9 C 8,3 C 92 % 1008,4 hPa 0,0 l/m 0 min 0 min 0 W/m 19,3 km/h (3 Bft) 100,00 %
10.10.2019 05:02 10,3 C 8,9 C 8,3 C 92 % 1008,4 hPa 0,0 l/m 0 min 0 min 0 W/m 16,1 km/h (3 Bft) 100,00 %
10.10.2019 05:04 10,2 C 8,9 C 8,3 C 92 % 1008,4 hPa 0,0 l/m 0 min 0 min 0 W/m 12,9 km/h (3 Bft) 100,00 %
10.10.2019 05:06 10,2 C 8,9 C 8,3 C 92 % 1008,5 hPa 0,0 l/m 0 min 0 min 0 W/m 16,1 km/h (3 Bft) 100,00 %
10.10.2019 05:08 10,2 C 8,9 C 8,3 C 92 % 1008,5 hPa 0,0 l/m 0 min 0 min 0 W/m 12,9 km/h (3 Bft) 100,00 %
10.10.2019 05:10 10,2 C 8,9 C 8,3 C 92 % 1008,5 hPa 0,0 l/m 0 min 0 min 0 W/m 12,9 km/h (3 Bft) 100,00 %
10.10.2019 05:12 10,1 C 8,9 C 8,3 C 92 % 1008,5 hPa 0,0 l/m 0 min 0 min 0 W/m 12,9 km/h (3 Bft) 100,00 %
10.10.2019 05:14 10,1 C 8,9 C 8,3 C 92 % 1008,5 hPa 0,0 l/m 0 min 2 min 0 W/m 9,7 km/h (2 Bft) 100,00 %
10.10.2019 05:16 10,1 C 8,9 C 8,3 C 92 % 1008,5 hPa 0,0 l/m 0 min 0 min 0 W/m 12,9 km/h (3 Bft) 100,00 %
10.10.2019 05:18 10,1 C 8,9 C 8,3 C 92 % 1008,5 hPa 0,0 l/m 0 min 0 min 0 W/m 12,9 km/h (3 Bft) 100,00 %
10.10.2019 05:20 10,1 C 8,9 C 8,3 C 92 % 1008,6 hPa 0,0 l/m 0 min 0 min 0 W/m 12,9 km/h (3 Bft) 100,00 %
10.10.2019 05:22 10,1 C 8,9 C 8,9 C 93 % 1008,6 hPa 0,0 l/m 0 min 0 min 0 W/m 12,9 km/h (3 Bft) 100,00 %
10.10.2019 05:24 10,1 C 8,9 C 8,9 C 93 % 1008,6 hPa 0,0 l/m 0 min 0 min 0 W/m 12,9 km/h (3 Bft) 100,00 %
10.10.2019 05:26 10,1 C 8,9 C 8,9 C 93 % 1008,6 hPa 0,0 l/m 0 min 0 min 0 W/m 6,4 km/h (2 Bft) 97,87 %
10.10.2019 05:28 10,1 C 8,9 C 8,9 C 93 % 1008,6 hPa 0,0 l/m 0 min 0 min 0 W/m 16,1 km/h (3 Bft) 100,00 %
10.10.2019 05:30 10,1 C 8,9 C 8,9 C 93 % 1008,6 hPa 0,0 l/m 0 min 2 min 0 W/m 16,1 km/h (3 Bft) 100,00 %
10.10.2019 05:32 10,1 C 8,9 C 8,9 C 93 % 1008,6 hPa 0,0 l/m 0 min 0 min 0 W/m 16,1 km/h (3 Bft) 95,74 %
10.10.2019 05:34 10,1 C 8,9 C 8,9 C 93 % 1008,6 hPa 0,0 l/m 0 min 0 min 0 W/m 12,9 km/h (3 Bft) 100,00 %
10.10.2019 05:36 10,1 C 8,9 C 8,9 C 93 % 1008,6 hPa 0,0 l/m 0 min 0 min 0 W/m 16,1 km/h (3 Bft) 97,87 %
10.10.2019 05:38 10,1 C 8,9 C 8,9 C 93 % 1008,6 hPa 0,0 l/m 0 min 0 min 0 W/m 6,4 km/h (2 Bft) 100,00 %
10.10.2019 05:40 10,1 C 8,9 C 8,9 C 93 % 1008,7 hPa 0,0 l/m 0 min 0 min 0 W/m 6,4 km/h (2 Bft) 100,00 %
10.10.2019 05:42 10,0 C 8,9 C 8,9 C 93 % 1008,6 hPa 0,0 l/m 0 min 0 min 0 W/m 16,1 km/h (3 Bft) 100,00 %
10.10.2019 05:44 10,0 C 8,3 C 8,3 C 93 % 1008,7 hPa 0,0 l/m 0 min 0 min 0 W/m 12,9 km/h (3 Bft) 100,00 %
10.10.2019 05:46 10,0 C 8,3 C 8,3 C 93 % 1008,7 hPa 0,0 l/m 0 min 0 min 0 W/m 12,9 km/h (3 Bft) 100,00 %
10.10.2019 05:48 10,0 C 8,3 C 8,3 C 93 % 1008,7 hPa 0,0 l/m 0 min 0 min 0 W/m 12,9 km/h (3 Bft) 100,00 %
10.10.2019 05:50 9,9 C 8,3 C 8,3 C 93 % 1008,7 hPa 0,0 l/m 0 min 0 min 0 W/m 12,9 km/h (3 Bft) 100,00 %
10.10.2019 05:52 9,9 C 8,3 C 8,3 C 93 % 1008,7 hPa 0,0 l/m 0 min 0 min 0 W/m 16,1 km/h (3 Bft) 100,00 %
10.10.2019 05:54 9,9 C 8,3 C 8,3 C 93 % 1008,7 hPa 0,0 l/m 0 min 0 min 0 W/m 16,1 km/h (3 Bft) 100,00 %
10.10.2019 05:56 9,9 C 8,3 C 8,3 C 93 % 1008,7 hPa 0,0 l/m 0 min 0 min 0 W/m 12,9 km/h (3 Bft) 97,83 %
10.10.2019 05:58 9,9 C 8,3 C 8,3 C 93 % 1008,8 hPa 0,0 l/m 0 min 0 min 0 W/m 22,5 km/h (4 Bft) 97,87 %
10.10.2019 06:00 9,9 C 8,3 C 8,3 C 93 % 1008,7 hPa 0,0 l/m 0 min 0 min 0 W/m 16,1 km/h (3 Bft) 97,87 %
10.10.2019 06:02 9,8 C 8,3 C 8,3 C 93 % 1008,8 hPa 0,0 l/m 0 min 0 min 0 W/m 6,4 km/h (2 Bft) 97,87 %
10.10.2019 06:04 9,8 C 8,3 C 8,3 C 94 % 1008,8 hPa 0,0 l/m 0 min 0 min 0 W/m 6,4 km/h (2 Bft) 63,83 %
10.10.2019 06:08 9,8 C 8,3 C 8,3 C 94 % 1008,8 hPa 0,0 l/m 0 min 0 min 0 W/m 16,1 km/h (3 Bft) 92,22 %
10.10.2019 06:10 9,8 C 8,3 C 8,3 C 94 % 1008,8 hPa 0,0 l/m 0 min 0 min 0 W/m 6,4 km/h (2 Bft) 95,74 %
10.10.2019 06:12 9,7 C 8,3 C 8,3 C 94 % 1008,8 hPa 0,0 l/m 0 min 0 min 0 W/m 12,9 km/h (3 Bft) 97,87 %
10.10.2019 06:14 9,7 C 8,3 C 8,3 C 94 % 1008,8 hPa 0,0 l/m 0 min 0 min 0 W/m 12,9 km/h (3 Bft) 97,87 %
10.10.2019 06:16 9,7 C 8,3 C 8,3 C 94 % 1009,0 hPa 0,0 l/m 0 min 0 min 0 W/m 9,7 km/h (2 Bft) 97,87 %
10.10.2019 06:18 9,7 C 8,3 C 8,3 C 94 % 1009,0 hPa 0,0 l/m 0 min 0 min 0 W/m 6,4 km/h (2 Bft) 95,74 %
10.10.2019 06:20 9,7 C 8,3 C 8,3 C 94 % 1008,9 hPa 0,0 l/m 0 min 0 min 0 W/m 12,9 km/h (3 Bft) 97,83 %
10.10.2019 06:22 9,7 C 8,3 C 8,3 C 94 % 1008,9 hPa 0,0 l/m 0 min 0 min 0 W/m 16,1 km/h (3 Bft) 97,87 %
10.10.2019 06:24 9,7 C 8,3 C 8,3 C 94 % 1008,9 hPa 0,0 l/m 0 min 0 min 0 W/m 16,1 km/h (3 Bft) 95,74 %
10.10.2019 06:26 9,6 C 8,3 C 8,3 C 94 % 1009,0 hPa 0,0 l/m 0 min 0 min 0 W/m 9,7 km/h (2 Bft) 95,74 %
10.10.2019 06:28 9,6 C 8,3 C 8,3 C 94 % 1009,0 hPa 0,0 l/m 0 min 0 min 0 W/m 6,4 km/h (2 Bft) 93,62 %
10.10.2019 06:30 9,6 C 8,3 C 8,3 C 94 % 1009,0 hPa 0,0 l/m 0 min 0 min 0 W/m 6,4 km/h (2 Bft) 95,74 %
10.10.2019 06:32 9,6 C 8,3 C 8,3 C 94 % 1009,0 hPa 0,0 l/m 0 min 0 min 0 W/m 12,9 km/h (3 Bft) 95,65 %
10.10.2019 06:34 9,6 C 8,3 C 8,3 C 94 % 1009,0 hPa 0,0 l/m 0 min 0 min 0 W/m 12,9 km/h (3 Bft) 95,74 %
10.10.2019 06:36 9,6 C 8,3 C 8,3 C 94 % 1009,0 hPa 0,0 l/m 0 min 0 min 0 W/m 6,4 km/h (2 Bft) 95,74 %
10.10.2019 06:38 9,6 C 8,3 C 8,3 C 94 % 1009,0 hPa 0,0 l/m 0 min 0 min 0 W/m 6,4 km/h (2 Bft) 93,62 %
10.10.2019 06:40 9,5 C 8,3 C 8,3 C 94 % 1009,0 hPa 0,0 l/m 0 min 0 min 0 W/m 19,3 km/h (3 Bft) 93,62 %
10.10.2019 06:42 9,5 C 8,3 C 8,3 C 94 % 1009,0 hPa 0,0 l/m 0 min 0 min 0 W/m 22,5 km/h (4 Bft) 93,62 %
10.10.2019 06:44 9,5 C 8,3 C 8,3 C 94 % 1009,1 hPa 0,0 l/m 0 min 0 min 0 W/m 19,3 km/h (3 Bft) 95,65 %
10.10.2019 06:46 9,5 C 8,3 C 8,3 C 94 % 1009,1 hPa 0,0 l/m 0 min 0 min 0 W/m 16,1 km/h (3 Bft) 97,87 %
10.10.2019 06:48 9,4 C 8,3 C 8,3 C 94 % 1009,1 hPa 0,0 l/m 0 min 0 min 0 W/m 12,9 km/h (3 Bft) 93,62 %
10.10.2019 06:50 9,4 C 8,3 C 8,3 C 94 % 1009,2 hPa 0,0 l/m 0 min 0 min 0 W/m 12,9 km/h (3 Bft) 95,74 %
10.10.2019 06:52 9,4 C 8,3 C 8,3 C 94 % 1009,2 hPa 0,0 l/m 0 min 0 min 0 W/m 6,4 km/h (2 Bft) 95,74 %
10.10.2019 06:54 9,4 C 8,3 C 8,3 C 94 % 1009,2 hPa 0,0 l/m 0 min 0 min 0 W/m 6,4 km/h (2 Bft) 95,74 %
10.10.2019 06:56 9,4 C 8,3 C 8,3 C 94 % 1009,2 hPa 0,0 l/m 0 min 0 min 0 W/m 12,9 km/h (3 Bft) 95,65 %
10.10.2019 06:58 9,4 C 8,3 C 8,3 C 94 % 1009,2 hPa 0,0 l/m 0 min 0 min 0 W/m 12,9 km/h (3 Bft) 91,49 %
10.10.2019 07:00 9,4 C 8,3 C 8,3 C 95 % 1009,3 hPa 0,0 l/m 0 min 0 min 0 W/m 9,7 km/h (2 Bft) 93,62 %
10.10.2019 07:02 9,4 C 8,9 C 8,3 C 95 % 1009,3 hPa 0,0 l/m 0 min 0 min 0 W/m 16,1 km/h (3 Bft) 93,62 %
10.10.2019 07:04 9,4 C 8,9 C 8,3 C 95 % 1009,3 hPa 0,0 l/m 0 min 0 min 0 W/m 9,7 km/h (2 Bft) 95,74 %
10.10.2019 07:06 9,5 C 8,9 C 8,3 C 95 % 1009,4 hPa 0,0 l/m 0 min 0 min 0 W/m 12,9 km/h (3 Bft) 95,65 %
10.10.2019 07:08 9,5 C 8,9 C 8,3 C 95 % 1009,5 hPa 0,0 l/m 0 min 0 min 0 W/m 12,9 km/h (3 Bft) 95,74 %
10.10.2019 07:10 9,5 C 8,9 C 8,3 C 95 % 1009,5 hPa 0,0 l/m 0 min 0 min 0 W/m 19,3 km/h (3 Bft) 95,74 %
10.10.2019 07:12 9,5 C 8,9 C 8,9 C 95 % 1009,5 hPa 0,0 l/m 0 min 0 min 0 W/m 6,4 km/h (2 Bft) 95,74 %
10.10.2019 07:14 9,6 C 8,9 C 8,9 C 95 % 1009,5 hPa 0,0 l/m 0 min 0 min 0 W/m 12,9 km/h (3 Bft) 95,74 %
10.10.2019 07:16 9,6 C 8,9 C 8,9 C 95 % 1009,5 hPa 0,0 l/m 0 min 0 min 0 W/m 16,1 km/h (3 Bft) 93,62 %
10.10.2019 07:18 9,6 C 8,9 C 8,9 C 95 % 1009,5 hPa 0,0 l/m 0 min 0 min 0 W/m 6,4 km/h (2 Bft) 95,65 %
10.10.2019 07:20 9,6 C 8,9 C 8,3 C 95 % 1009,5 hPa 0,0 l/m 0 min 0 min 0 W/m 12,9 km/h (3 Bft) 93,62 %
10.10.2019 07:22 9,6 C 8,9 C 8,3 C 95 % 1009,5 hPa 0,0 l/m 0 min 0 min 0 W/m 6,4 km/h (2 Bft) 95,74 %
10.10.2019 07:24 9,6 C 8,9 C 8,3 C 95 % 1009,5 hPa 0,0 l/m 0 min 0 min 0 W/m 6,4 km/h (2 Bft) 93,62 %
10.10.2019 07:26 9,6 C 8,9 C 8,3 C 95 % 1009,7 hPa 0,0 l/m 0 min 0 min 0 W/m 12,9 km/h (3 Bft) 95,74 %
10.10.2019 07:28 9,6 C 8,9 C 8,3 C 95 % 1009,6 hPa 0,0 l/m 0 min 0 min 0 W/m 12,9 km/h (3 Bft) 97,87 %
10.10.2019 07:30 9,6 C 8,9 C 8,3 C 95 % 1009,7 hPa 0,0 l/m 0 min 0 min 0 W/m 19,3 km/h (3 Bft) 97,83 %
10.10.2019 07:32 9,6 C 8,3 C 8,3 C 95 % 1009,7 hPa 0,0 l/m 0 min 0 min 0 W/m 9,7 km/h (2 Bft) 95,74 %
10.10.2019 07:34 9,6 C 8,3 C 8,3 C 95 % 1009,7 hPa 0,0 l/m 0 min 0 min 0 W/m 9,7 km/h (2 Bft) 97,87 %
10.10.2019 07:36 9,6 C 8,3 C 8,3 C 95 % 1009,7 hPa 0,0 l/m 0 min 0 min 0 W/m 12,9 km/h (3 Bft) 93,62 %
10.10.2019 07:38 9,6 C 8,3 C 8,3 C 95 % 1009,7 hPa 0,0 l/m 0 min 0 min 0 W/m 6,4 km/h (2 Bft) 95,74 %
10.10.2019 07:40 9,6 C 8,3 C 8,3 C 95 % 1009,8 hPa 0,0 l/m 0 min 0 min 0 W/m 12,9 km/h (3 Bft) 97,87 %
10.10.2019 07:42 9,6 C 8,9 C 8,3 C 95 % 1009,8 hPa 0,0 l/m 0 min 0 min 0 W/m 12,9 km/h (3 Bft) 97,83 %
10.10.2019 07:44 9,6 C 8,9 C 8,3 C 95 % 1009,8 hPa 0,0 l/m 0 min 0 min 0 W/m 9,7 km/h (2 Bft) 100,00 %
10.10.2019 07:46 9,6 C 8,9 C 8,3 C 95 % 1009,8 hPa 0,0 l/m 0 min 0 min 0 W/m 12,9 km/h (3 Bft) 97,87 %
10.10.2019 07:48 9,6 C 8,9 C 8,3 C 95 % 1009,9 hPa 0,0 l/m 0 min 0 min 0 W/m 6,4 km/h (2 Bft) 97,87 %
10.10.2019 07:50 9,6 C 8,9 C 8,9 C 95 % 1009,9 hPa 0,0 l/m 0 min 0 min 0 W/m 12,9 km/h (3 Bft) 97,87 %
10.10.2019 07:52 9,6 C 8,9 C 8,9 C 95 % 1009,9 hPa 0,0 l/m 0 min 0 min 0 W/m 12,9 km/h (3 Bft) 95,74 %
10.10.2019 07:54 9,6 C 8,9 C 8,9 C 95 % 1010,0 hPa 0,0 l/m 0 min 0 min 0 W/m 9,7 km/h (2 Bft) 100,00 %
10.10.2019 07:56 9,6 C 9,4 C 8,9 C 95 % 1009,9 hPa 0,0 l/m 0 min 0 min 5 W/m 12,9 km/h (3 Bft) 100,00 %
10.10.2019 07:58 9,7 C 9,4 C 8,9 C 95 % 1009,9 hPa 0,0 l/m 0 min 0 min 5 W/m 12,9 km/h (3 Bft) 100,00 %
10.10.2019 08:00 9,7 C 9,4 C 8,9 C 96 % 1009,9 hPa 0,0 l/m 0 min 0 min 7 W/m 12,9 km/h (3 Bft) 100,00 %
10.10.2019 08:02 9,7 C 9,4 C 8,9 C 96 % 1009,9 hPa 0,0 l/m 0 min 0 min 7 W/m 16,1 km/h (3 Bft) 100,00 %
10.10.2019 08:04 9,7 C 8,9 C 8,9 C 96 % 1009,9 hPa 0,0 l/m 0 min 0 min 9 W/m 12,9 km/h (3 Bft) 100,00 %
10.10.2019 08:06 9,7 C 8,9 C 8,9 C 96 % 1009,9 hPa 0,0 l/m 0 min 0 min 9 W/m 9,7 km/h (2 Bft) 100,00 %
10.10.2019 08:08 9,7 C 9,4 C 8,9 C 96 % 1010,0 hPa 0,0 l/m 0 min 0 min 11 W/m 12,9 km/h (3 Bft) 100,00 %
10.10.2019 08:10 9,7 C 9,4 C 8,9 C 96 % 1010,0 hPa 0,0 l/m 0 min 0 min 11 W/m 12,9 km/h (3 Bft) 100,00 %
10.10.2019 08:12 9,8 C 9,4 C 8,9 C 96 % 1010,0 hPa 0,0 l/m 0 min 0 min 11 W/m 6,4 km/h (2 Bft) 100,00 %
10.10.2019 08:14 9,8 C 9,4 C 8,9 C 96 % 1010,1 hPa 0,0 l/m 0 min 0 min 13 W/m 12,9 km/h (3 Bft) 100,00 %
10.10.2019 08:16 9,8 C 9,4 C 8,9 C 96 % 1010,1 hPa 0,0 l/m 0 min 0 min 14 W/m 19,3 km/h (3 Bft) 100,00 %
10.10.2019 08:18 9,8 C 9,4 C 8,9 C 96 % 1010,1 hPa 0,0 l/m 0 min 0 min 17 W/m 29,0 km/h (5 Bft) 100,00 %
10.10.2019 08:20 9,8 C 9,4 C 8,9 C 96 % 1010,2 hPa 0,0 l/m 0 min 0 min 20 W/m 16,1 km/h (3 Bft) 100,00 %
10.10.2019 08:22 9,8 C 9,4 C 8,9 C 96 % 1010,2 hPa 0,0 l/m 0 min 0 min 22 W/m 12,9 km/h (3 Bft) 97,87 %
10.10.2019 08:24 9,9 C 9,4 C 8,9 C 96 % 1010,3 hPa 0,0 l/m 0 min 0 min 22 W/m 16,1 km/h (3 Bft) 100,00 %
10.10.2019 08:26 9,9 C 9,4 C 8,9 C 96 % 1010,4 hPa 0,0 l/m 0 min 0 min 20 W/m 12,9 km/h (3 Bft) 100,00 %
10.10.2019 08:28 9,9 C 9,4 C 9,4 C 96 % 1010,4 hPa 0,0 l/m 0 min 0 min 17 W/m 19,3 km/h (3 Bft) 97,83 %
10.10.2019 08:30 9,9 C 9,4 C 9,4 C 96 % 1010,4 hPa 0,0 l/m 0 min 0 min 19 W/m 9,7 km/h (2 Bft) 100,00 %
10.10.2019 08:32 10,0 C 10,0 C 9,4 C 96 % 1010,5 hPa 0,0 l/m 0 min 0 min 21 W/m 19,3 km/h (3 Bft) 100,00 %
10.10.2019 08:34 10,0 C 10,0 C 9,4 C 96 % 1010,5 hPa 0,0 l/m 0 min 0 min 26 W/m 9,7 km/h (2 Bft) 100,00 %
10.10.2019 08:36 10,1 C 10,0 C 9,4 C 96 % 1010,5 hPa 0,0 l/m 0 min 0 min 28 W/m 6,4 km/h (2 Bft) 100,00 %
10.10.2019 08:38 10,1 C 10,0 C 9,4 C 96 % 1010,6 hPa 0,0 l/m 0 min 0 min 28 W/m 12,9 km/h (3 Bft) 100,00 %
10.10.2019 08:40 10,1 C 10,0 C 9,4 C 96 % 1010,6 hPa 0,0 l/m 0 min 0 min 19 W/m 16,1 km/h (3 Bft) 100,00 %
10.10.2019 08:42 10,2 C 10,0 C 9,4 C 96 % 1010,6 hPa 0,0 l/m 0 min 0 min 24 W/m 9,7 km/h (2 Bft) 97,87 %
10.10.2019 08:44 10,2 C 10,0 C 9,4 C 96 % 1010,7 hPa 0,0 l/m 0 min 0 min 28 W/m 12,9 km/h (3 Bft) 97,87 %
10.10.2019 08:46 10,2 C 10,0 C 9,4 C 96 % 1010,7 hPa 0,0 l/m 0 min 0 min 27 W/m 12,9 km/h (3 Bft) 95,74 %
10.10.2019 08:48 10,2 C 10,0 C 9,4 C 95 % 1010,7 hPa 0,0 l/m 0 min 0 min 51 W/m 19,3 km/h (3 Bft) 97,87 %
10.10.2019 08:50 10,3 C 10,6 C 10,0 C 95 % 1010,7 hPa 0,0 l/m 0 min 0 min 71 W/m 22,5 km/h (4 Bft) 97,87 %
10.10.2019 08:52 10,3 C 10,6 C 10,0 C 95 % 1010,8 hPa 0,0 l/m 0 min 0 min 50 W/m 16,1 km/h (3 Bft) 97,83 %
10.10.2019 08:54 10,3 C 10,6 C 10,0 C 95 % 1010,9 hPa 0,0 l/m 0 min 0 min 49 W/m 16,1 km/h (3 Bft) 97,87 %
10.10.2019 08:56 10,4 C 10,0 C 9,4 C 95 % 1010,9 hPa 0,0 l/m 0 min 0 min 39 W/m 22,5 km/h (4 Bft) 95,74 %
10.10.2019 08:58 10,4 C 10,0 C 9,4 C 95 % 1010,9 hPa 0,0 l/m 0 min 0 min 31 W/m 16,1 km/h (3 Bft) 97,87 %
10.10.2019 09:00 10,4 C 10,0 C 9,4 C 95 % 1011,1 hPa 0,0 l/m 0 min 0 min 30 W/m 22,5 km/h (4 Bft) 97,87 %
10.10.2019 09:02 10,4 C 10,0 C 9,4 C 95 % 1011,0 hPa 0,0 l/m 0 min 0 min 32 W/m 19,3 km/h (3 Bft) 97,87 %
10.10.2019 09:04 10,4 C 10,0 C 9,4 C 95 % 1011,0 hPa 0,0 l/m 0 min 0 min 45 W/m 19,3 km/h (3 Bft) 95,65 %
10.10.2019 09:06 10,4 C 10,0 C 9,4 C 95 % 1011,1 hPa 0,0 l/m 0 min 0 min 55 W/m 22,5 km/h (4 Bft) 97,87 %
10.10.2019 09:08 10,4 C 10,0 C 9,4 C 95 % 1011,1 hPa 0,0 l/m 0 min 0 min 43 W/m 16,1 km/h (3 Bft) 95,74 %
10.10.2019 09:10 10,4 C 10,0 C 9,4 C 94 % 1011,1 hPa 0,0 l/m 0 min 0 min 47 W/m 9,7 km/h (2 Bft) 97,87 %
10.10.2019 09:12 10,4 C 10,0 C 9,4 C 94 % 1011,2 hPa 0,0 l/m 0 min 0 min 48 W/m 25,7 km/h (4 Bft) 97,87 %
10.10.2019 09:14 10,4 C 10,0 C 9,4 C 94 % 1011,3 hPa 0,0 l/m 0 min 0 min 48 W/m 19,3 km/h (3 Bft) 97,83 %
10.10.2019 09:16 10,4 C 10,0 C 9,4 C 94 % 1011,5 hPa 0,0 l/m 0 min 0 min 51 W/m 32,2 km/h (5 Bft) 95,74 %
10.10.2019 09:18 10,4 C 10,0 C 9,4 C 94 % 1011,4 hPa 0,0 l/m 0 min 0 min 56 W/m 22,5 km/h (4 Bft) 97,87 %
10.10.2019 09:20 10,4 C 10,6 C 10,0 C 94 % 1011,5 hPa 0,0 l/m 0 min 0 min 87 W/m 16,1 km/h (3 Bft) 97,87 %
10.10.2019 09:22 10,4 C 10,6 C 10,0 C 94 % 1011,5 hPa 0,0 l/m 0 min 0 min 82 W/m 19,3 km/h (3 Bft) 95,74 %
10.10.2019 09:24 10,5 C 10,6 C 10,0 C 94 % 1011,6 hPa 0,0 l/m 0 min 0 min 83 W/m 22,5 km/h (4 Bft) 95,74 %
10.10.2019 09:26 10,5 C 10,6 C 10,0 C 94 % 1011,6 hPa 0,0 l/m 0 min 0 min 104 W/m 12,9 km/h (3 Bft) 97,83 %
10.10.2019 09:28 10,6 C 10,6 C 10,0 C 94 % 1011,8 hPa 0,0 l/m 0 min 0 min 86 W/m 19,3 km/h (3 Bft) 97,87 %
10.10.2019 09:30 10,6 C 11,1 C 10,0 C 94 % 1011,7 hPa 0,0 l/m 0 min 0 min 98 W/m 16,1 km/h (3 Bft) 97,87 %
10.10.2019 09:32 10,6 C 11,1 C 10,0 C 94 % 1011,7 hPa 0,0 l/m 0 min 0 min 114 W/m 19,3 km/h (3 Bft) 100,00 %
10.10.2019 09:34 10,6 C 11,1 C 10,0 C 94 % 1011,8 hPa 0,0 l/m 0 min 0 min 115 W/m 22,5 km/h (4 Bft) 97,87 %
10.10.2019 09:36 10,7 C 11,1 C 10,6 C 94 % 1011,9 hPa 0,0 l/m 2 min 0 min 137 W/m 16,1 km/h (3 Bft) 95,74 %
10.10.2019 09:38 10,7 C 11,1 C 10,6 C 94 % 1011,8 hPa 0,0 l/m 0 min 0 min 109 W/m 19,3 km/h (3 Bft) 95,65 %
10.10.2019 09:40 10,8 C 11,1 C 10,0 C 93 % 1011,8 hPa 0,0 l/m 0 min 0 min 76 W/m 12,9 km/h (3 Bft) 100,00 %
10.10.2019 09:42 10,8 C 11,1 C 10,0 C 93 % 1011,9 hPa 0,0 l/m 0 min 0 min 86 W/m 22,5 km/h (4 Bft) 97,87 %
10.10.2019 09:44 10,8 C 11,1 C 10,6 C 93 % 1011,8 hPa 0,0 l/m 0 min 0 min 117 W/m 16,1 km/h (3 Bft) 95,74 %
10.10.2019 09:46 10,8 C 11,7 C 10,6 C 93 % 1011,8 hPa 0,0 l/m 0 min 0 min 127 W/m 12,9 km/h (3 Bft) 97,87 %
10.10.2019 09:48 10,9 C 11,7 C 10,6 C 93 % 1012,0 hPa 0,0 l/m 0 min 0 min 110 W/m 9,7 km/h (2 Bft) 97,87 %
10.10.2019 09:50 10,9 C 11,1 C 10,6 C 93 % 1012,0 hPa 0,0 l/m 0 min 0 min 64 W/m 12,9 km/h (3 Bft) 95,65 %
10.10.2019 09:52 10,9 C 11,1 C 10,0 C 93 % 1012,0 hPa 0,0 l/m 0 min 0 min 57 W/m 16,1 km/h (3 Bft) 97,87 %
10.10.2019 09:54 10,9 C 11,7 C 10,0 C 93 % 1012,0 hPa 0,0 l/m 0 min 0 min 119 W/m 9,7 km/h (2 Bft) 95,74 %
10.10.2019 09:56 11,0 C 12,8 C 10,6 C 93 % 1012,1 hPa 0,0 l/m 2 min 0 min 290 W/m 22,5 km/h (4 Bft) 93,62 %
10.10.2019 09:58 11,0 C 12,8 C 10,6 C 93 % 1012,1 hPa 0,0 l/m 2 min 0 min 335 W/m 25,7 km/h (4 Bft) 95,74 %
10.10.2019 10:00 11,1 C 12,8 C 10,6 C 93 % 1012,1 hPa 0,0 l/m 0 min 0 min 117 W/m 16,1 km/h (3 Bft) 95,74 %
10.10.2019 10:02 11,1 C 12,8 C 10,6 C 93 % 1012,1 hPa 0,0 l/m 2 min 0 min 205 W/m 16,1 km/h (3 Bft) 95,65 %
10.10.2019 10:04 11,1 C 12,2 C 10,6 C 93 % 1012,1 hPa 0,0 l/m 0 min 0 min 131 W/m 22,5 km/h (4 Bft) 95,83 %
10.10.2019 10:06 11,2 C 12,8 C 11,1 C 92 % 1012,3 hPa 0,0 l/m 0 min 0 min 125 W/m 16,1 km/h (3 Bft) 95,74 %
10.10.2019 10:08 11,2 C 12,2 C 10,6 C 92 % 1012,3 hPa 0,0 l/m 0 min 0 min 107 W/m 25,7 km/h (4 Bft) 95,74 %
10.10.2019 10:10 11,2 C 11,7 C 10,6 C 92 % 1012,5 hPa 0,0 l/m 0 min 0 min 95 W/m 16,1 km/h (3 Bft) 93,62 %
10.10.2019 10:12 11,3 C 12,2 C 10,6 C 92 % 1012,4 hPa 0,0 l/m 0 min 0 min 116 W/m 25,7 km/h (4 Bft) 95,65 %
10.10.2019 10:14 11,3 C 11,7 C 11,1 C 92 % 1012,5 hPa 0,0 l/m 0 min 0 min 146 W/m 22,5 km/h (4 Bft) 95,74 %
10.10.2019 10:16 11,3 C 11,7 C 10,6 C 92 % 1012,5 hPa 0,0 l/m 0 min 0 min 107 W/m 22,5 km/h (4 Bft) 95,74 %
10.10.2019 10:18 11,3 C 12,2 C 11,1 C 91 % 1012,5 hPa 0,0 l/m 0 min 0 min 125 W/m 12,9 km/h (3 Bft) 95,74 %
10.10.2019 10:20 11,4 C 12,2 C 11,1 C 91 % 1012,6 hPa 0,0 l/m 0 min 0 min 121 W/m 16,1 km/h (3 Bft) 95,74 %
10.10.2019 10:22 11,4 C 11,7 C 11,1 C 91 % 1012,5 hPa 0,0 l/m 0 min 0 min 127 W/m 16,1 km/h (3 Bft) 93,62 %
10.10.2019 10:24 11,4 C 11,7 C 10,6 C 91 % 1012,6 hPa 0,0 l/m 0 min 0 min 110 W/m 29,0 km/h (5 Bft) 93,48 %
10.10.2019 10:26 11,4 C 12,2 C 11,1 C 91 % 1012,5 hPa 0,0 l/m 0 min 0 min 131 W/m 16,1 km/h (3 Bft) 93,62 %
10.10.2019 10:28 11,5 C 12,2 C 11,1 C 91 % 1012,6 hPa 0,0 l/m 0 min 0 min 138 W/m 12,9 km/h (3 Bft) 95,74 %
10.10.2019 10:30 11,5 C 12,2 C 11,1 C 91 % 1012,6 hPa 0,0 l/m 2 min 0 min 184 W/m 16,1 km/h (3 Bft) 95,74 %
10.10.2019 10:32 11,6 C 12,2 C 11,1 C 91 % 1012,5 hPa 0,0 l/m 0 min 0 min 169 W/m 12,9 km/h (3 Bft) 95,74 %
10.10.2019 10:34 11,6 C 12,2 C 11,1 C 91 % 1012,6 hPa 0,0 l/m 0 min 0 min 135 W/m 19,3 km/h (3 Bft) 95,74 %
10.10.2019 10:36 11,6 C 12,8 C 11,1 C 91 % 1012,7 hPa 0,0 l/m 0 min 0 min 179 W/m 19,3 km/h (3 Bft) 95,65 %
10.10.2019 10:38 11,7 C 12,2 C 11,1 C 91 % 1012,6 hPa 0,0 l/m 2 min 0 min 239 W/m 19,3 km/h (3 Bft) 95,74 %
10.10.2019 10:40 11,7 C 12,2 C 11,1 C 90 % 1012,7 hPa 0,0 l/m 0 min 0 min 160 W/m 29,0 km/h (5 Bft) 91,49 %
10.10.2019 10:42 11,7 C 12,8 C 11,7 C 90 % 1012,7 hPa 0,0 l/m 2 min 0 min 220 W/m 22,5 km/h (4 Bft) 95,74 %
10.10.2019 10:44 11,8 C 13,3 C 11,7 C 90 % 1012,8 hPa 0,0 l/m 2 min 0 min 264 W/m 19,3 km/h (3 Bft) 97,87 %
10.10.2019 10:46 11,8 C 12,8 C 11,7 C 90 % 1012,8 hPa 0,0 l/m 0 min 0 min 153 W/m 12,9 km/h (3 Bft) 95,65 %
10.10.2019 10:48 11,9 C 12,8 C 11,7 C 90 % 1012,8 hPa 0,0 l/m 0 min 0 min 149 W/m 12,9 km/h (3 Bft) 95,74 %
10.10.2019 10:50 11,9 C 12,2 C 11,7 C 90 % 1012,9 hPa 0,0 l/m 0 min 0 min 155 W/m 25,7 km/h (4 Bft) 97,87 %
10.10.2019 10:52 11,9 C 12,2 C 11,7 C 90 % 1012,8 hPa 0,0 l/m 0 min 0 min 166 W/m 16,1 km/h (3 Bft) 100,00 %
10.10.2019 10:54 11,9 C 12,8 C 11,7 C 89 % 1012,8 hPa 0,0 l/m 0 min 0 min 159 W/m 19,3 km/h (3 Bft) 100,00 %
10.10.2019 10:56 12,0 C 12,2 C 11,7 C 89 % 1012,9 hPa 0,0 l/m 0 min 0 min 165 W/m 29,0 km/h (5 Bft) 97,87 %
10.10.2019 10:58 12,0 C 12,2 C 11,7 C 89 % 1012,9 hPa 0,0 l/m 0 min 0 min 123 W/m 19,3 km/h (3 Bft) 100,00 %
10.10.2019 11:00 12,1 C 12,2 C 11,7 C 89 % 1012,9 hPa 0,0 l/m 0 min 0 min 142 W/m 12,9 km/h (3 Bft) 100,00 %
10.10.2019 11:02 12,1 C 12,8 C 11,7 C 89 % 1012,9 hPa 0,0 l/m 0 min 0 min 186 W/m 16,1 km/h (3 Bft) 100,00 %
10.10.2019 11:04 12,1 C 13,9 C 11,7 C 89 % 1012,9 hPa 0,0 l/m 0 min 0 min 206 W/m 19,3 km/h (3 Bft) 97,87 %
10.10.2019 11:06 12,1 C 14,4 C 12,2 C 89 % 1013,0 hPa 0,0 l/m 2 min 0 min 464 W/m 16,1 km/h (3 Bft) 97,87 %
10.10.2019 11:08 12,2 C 13,9 C 12,2 C 89 % 1013,0 hPa 0,0 l/m 0 min 0 min 210 W/m 29,0 km/h (5 Bft) 97,87 %
10.10.2019 11:10 12,2 C 13,9 C 12,2 C 89 % 1013,0 hPa 0,0 l/m 0 min 0 min 185 W/m 16,1 km/h (3 Bft) 97,83 %
10.10.2019 11:12 12,3 C 13,9 C 12,2 C 88 % 1013,0 hPa 0,0 l/m 0 min 0 min 198 W/m 29,0 km/h (5 Bft) 97,87 %
10.10.2019 11:14 12,3 C 13,9 C 12,2 C 89 % 1013,0 hPa 0,0 l/m 0 min 0 min 198 W/m 12,9 km/h (3 Bft) 97,87 %
10.10.2019 11:16 12,4 C 13,9 C 12,2 C 88 % 1013,1 hPa 0,0 l/m 0 min 0 min 210 W/m 29,0 km/h (5 Bft) 97,87 %
10.10.2019 11:18 12,4 C 13,3 C 12,2 C 88 % 1013,1 hPa 0,0 l/m 0 min 0 min 190 W/m 22,5 km/h (4 Bft) 97,87 %
10.10.2019 11:20 12,4 C 13,3 C 12,2 C 88 % 1013,1 hPa 0,0 l/m 0 min 0 min 168 W/m 12,9 km/h (3 Bft) 97,87 %
10.10.2019 11:22 12,4 C 13,3 C 12,2 C 88 % 1013,2 hPa 0,0 l/m 0 min 0 min 201 W/m 19,3 km/h (3 Bft) 93,48 %
10.10.2019 11:24 12,5 C 13,3 C 12,2 C 88 % 1013,2 hPa 0,0 l/m 0 min 0 min 210 W/m 6,4 km/h (2 Bft) 97,87 %
10.10.2019 11:26 12,5 C 13,3 C 12,2 C 88 % 1013,3 hPa 0,0 l/m 0 min 0 min 169 W/m 16,1 km/h (3 Bft) 97,87 %
10.10.2019 11:28 12,6 C 13,3 C 12,2 C 88 % 1013,3 hPa 0,0 l/m 0 min 0 min 162 W/m 16,1 km/h (3 Bft) 97,87 %
10.10.2019 11:30 12,6 C 12,8 C 12,2 C 87 % 1013,4 hPa 0,0 l/m 0 min 0 min 161 W/m 25,7 km/h (4 Bft) 97,87 %
10.10.2019 11:32 12,6 C 15,0 C 12,2 C 87 % 1013,3 hPa 0,0 l/m 0 min 0 min 176 W/m 29,0 km/h (5 Bft) 95,74 %
10.10.2019 11:34 12,6 C 13,9 C 12,2 C 87 % 1013,2 hPa 0,0 l/m 0 min 0 min 179 W/m 22,5 km/h (4 Bft) 97,83 %
10.10.2019 11:36 12,6 C 13,9 C 12,2 C 86 % 1013,4 hPa 0,0 l/m 0 min 0 min 174 W/m 16,1 km/h (3 Bft) 97,87 %
10.10.2019 11:38 12,7 C 14,4 C 12,2 C 86 % 1013,3 hPa 0,0 l/m 0 min 0 min 174 W/m 19,3 km/h (3 Bft) 97,87 %
10.10.2019 11:40 12,7 C 15,0 C 12,2 C 86 % 1013,3 hPa 0,0 l/m 0 min 0 min 186 W/m 9,7 km/h (2 Bft) 95,74 %
10.10.2019 11:42 12,8 C 15,6 C 12,2 C 87 % 1013,3 hPa 0,0 l/m 2 min 0 min 251 W/m 25,7 km/h (4 Bft) 97,87 %
10.10.2019 11:44 12,8 C 16,1 C 12,8 C 86 % 1013,3 hPa 0,0 l/m 0 min 0 min 227 W/m 19,3 km/h (3 Bft) 97,87 %
10.10.2019 11:46 12,9 C 15,6 C 12,8 C 86 % 1013,3 hPa 0,0 l/m 0 min 0 min 225 W/m 19,3 km/h (3 Bft) 100,00 %
10.10.2019 11:48 13,0 C 15,6 C 12,8 C 86 % 1013,4 hPa 0,0 l/m 0 min 0 min 212 W/m 16,1 km/h (3 Bft) 97,87 %
10.10.2019 11:50 13,0 C 15,0 C 12,2 C 85 % 1013,4 hPa 0,0 l/m 0 min 0 min 215 W/m 22,5 km/h (4 Bft) 100,00 %
10.10.2019 11:52 13,1 C 16,7 C 12,8 C 86 % 1013,3 hPa 0,0 l/m 2 min 0 min 474 W/m 12,9 km/h (3 Bft) 100,00 %
10.10.2019 11:54 13,3 C 17,8 C 13,3 C 86 % 1013,3 hPa 0,0 l/m 2 min 0 min 635 W/m 25,7 km/h (4 Bft) 97,87 %
10.10.2019 11:56 13,4 C 18,3 C 13,3 C 86 % 1013,4 hPa 0,0 l/m 2 min 0 min 658 W/m 16,1 km/h (3 Bft) 97,83 %
10.10.2019 11:58 13,6 C 18,9 C 13,3 C 86 % 1013,4 hPa 0,0 l/m 2 min 0 min 661 W/m 22,5 km/h (4 Bft) 97,87 %
10.10.2019 12:00 13,7 C 18,3 C 13,3 C 86 % 1013,3 hPa 0,0 l/m 2 min 0 min 665 W/m 19,3 km/h (3 Bft) 100,00 %
10.10.2019 12:02 13,8 C 17,8 C 13,3 C 85 % 1013,4 hPa 0,0 l/m 2 min 0 min 666 W/m 22,5 km/h (4 Bft) 97,87 %
10.10.2019 12:04 13,8 C 17,8 C 13,3 C 84 % 1013,5 hPa 0,0 l/m 2 min 0 min 636 W/m 22,5 km/h (4 Bft) 97,87 %
10.10.2019 12:08 14,0 C 18,3 C 13,3 C 83 % 1013,4 hPa 0,0 l/m 4 min 0 min 631 W/m 32,2 km/h (5 Bft) 100,00 %
10.10.2019 12:10 14,1 C 18,9 C 13,3 C 83 % 1013,5 hPa 0,0 l/m 2 min 0 min 614 W/m 19,3 km/h (3 Bft) 97,83 %
10.10.2019 12:12 14,1 C 17,2 C 13,3 C 82 % 1013,5 hPa 0,0 l/m 2 min 0 min 519 W/m 19,3 km/h (3 Bft) 100,00 %
10.10.2019 12:14 14,1 C 16,7 C 13,3 C 82 % 1013,6 hPa 0,0 l/m 0 min 0 min 250 W/m 41,8 km/h (6 Bft) 100,00 %
10.10.2019 12:16 14,1 C 15,6 C 13,3 C 81 % 1013,5 hPa 0,0 l/m 0 min 0 min 221 W/m 22,5 km/h (4 Bft) 100,00 %
10.10.2019 12:18 14,1 C 16,1 C 13,3 C 82 % 1013,6 hPa 0,0 l/m 0 min 0 min 193 W/m 9,7 km/h (2 Bft) 100,00 %
10.10.2019 12:20 14,1 C 16,7 C 13,3 C 81 % 1013,7 hPa 0,0 l/m 0 min 0 min 188 W/m 35,4 km/h (5 Bft) 100,00 %
10.10.2019 12:22 14,1 C 16,7 C 12,8 C 81 % 1013,6 hPa 0,0 l/m 0 min 0 min 188 W/m 16,1 km/h (3 Bft) 100,00 %
10.10.2019 12:24 14,1 C 16,7 C 12,8 C 81 % 1013,6 hPa 0,0 l/m 0 min 0 min 188 W/m 29,0 km/h (5 Bft) 100,00 %
10.10.2019 12:26 14,1 C 17,8 C 13,3 C 81 % 1013,6 hPa 0,0 l/m 0 min 0 min 254 W/m 16,1 km/h (3 Bft) 100,00 %
10.10.2019 12:28 14,2 C 17,8 C 13,3 C 81 % 1013,5 hPa 0,0 l/m 2 min 0 min 595 W/m 22,5 km/h (4 Bft) 100,00 %
10.10.2019 12:30 14,3 C 18,9 C 13,3 C 81 % 1013,6 hPa 0,0 l/m 2 min 0 min 613 W/m 19,3 km/h (3 Bft) 100,00 %
10.10.2019 12:32 14,3 C 18,9 C 13,9 C 80 % 1013,6 hPa 0,0 l/m 2 min 0 min 588 W/m 19,3 km/h (3 Bft) 100,00 %
10.10.2019 12:34 14,3 C 18,9 C 13,9 C 80 % 1013,6 hPa 0,0 l/m 2 min 0 min 590 W/m 16,1 km/h (3 Bft) 93,62 %
10.10.2019 12:36 14,3 C 18,9 C 13,9 C 80 % 1013,6 hPa 0,0 l/m 2 min 0 min 595 W/m 25,7 km/h (4 Bft) 97,87 %
10.10.2019 12:38 14,5 C 19,4 C 13,9 C 80 % 1013,7 hPa 0,0 l/m 2 min 0 min 594 W/m 19,3 km/h (3 Bft) 97,87 %
10.10.2019 12:40 14,6 C 18,9 C 13,9 C 79 % 1013,7 hPa 0,0 l/m 2 min 0 min 608 W/m 25,7 km/h (4 Bft) 97,87 %
10.10.2019 12:42 14,7 C 18,9 C 13,9 C 79 % 1013,6 hPa 0,0 l/m 2 min 0 min 607 W/m 19,3 km/h (3 Bft) 97,87 %
10.10.2019 12:44 14,8 C 18,3 C 13,9 C 78 % 1013,6 hPa 0,0 l/m 2 min 0 min 605 W/m 22,5 km/h (4 Bft) 97,83 %
10.10.2019 12:46 14,8 C 18,9 C 13,9 C 78 % 1013,6 hPa 0,0 l/m 2 min 0 min 595 W/m 19,3 km/h (3 Bft) 97,87 %
10.10.2019 12:48 14,8 C 19,4 C 13,9 C 78 % 1013,6 hPa 0,0 l/m 2 min 0 min 594 W/m 19,3 km/h (3 Bft) 97,87 %
10.10.2019 12:50 14,9 C 18,9 C 13,9 C 77 % 1013,6 hPa 0,0 l/m 2 min 0 min 597 W/m 29,0 km/h (5 Bft) 97,87 %
10.10.2019 12:52 15,1 C 19,4 C 13,9 C 77 % 1013,6 hPa 0,0 l/m 2 min 0 min 605 W/m 19,3 km/h (3 Bft) 97,87 %
10.10.2019 12:54 15,2 C 20,0 C 13,9 C 78 % 1013,7 hPa 0,0 l/m 2 min 0 min 606 W/m 12,9 km/h (3 Bft) 97,87 %
10.10.2019 12:56 15,2 C 18,9 C 13,9 C 77 % 1013,7 hPa 0,0 l/m 2 min 0 min 612 W/m 19,3 km/h (3 Bft) 93,48 %
10.10.2019 12:58 15,3 C 18,3 C 13,9 C 76 % 1013,6 hPa 0,0 l/m 2 min 0 min 637 W/m 22,5 km/h (4 Bft) 97,87 %
10.10.2019 13:00 15,3 C 18,3 C 13,9 C 76 % 1013,6 hPa 0,0 l/m 2 min 0 min 462 W/m 16,1 km/h (3 Bft) 97,87 %
10.10.2019 13:02 15,3 C 20,0 C 13,9 C 76 % 1013,7 hPa 0,0 l/m 2 min 0 min 334 W/m 16,1 km/h (3 Bft) 95,74 %
10.10.2019 13:04 15,4 C 20,0 C 14,4 C 76 % 1013,7 hPa 0,0 l/m 2 min 0 min 674 W/m 25,7 km/h (4 Bft) 97,87 %
10.10.2019 13:06 15,5 C 20,0 C 14,4 C 75 % 1013,6 hPa 0,0 l/m 2 min 0 min 726 W/m 25,7 km/h (4 Bft) 97,83 %
10.10.2019 13:08 15,6 C 20,6 C 15,0 C 75 % 1013,6 hPa 0,0 l/m 2 min 0 min 727 W/m 22,5 km/h (4 Bft) 97,87 %
10.10.2019 13:10 15,7 C 18,9 C 15,0 C 74 % 1013,6 hPa 0,0 l/m 2 min 0 min 744 W/m 16,1 km/h (3 Bft) 97,87 %
10.10.2019 13:12 15,7 C 18,9 C 14,4 C 74 % 1013,8 hPa 0,0 l/m 2 min 0 min 751 W/m 22,5 km/h (4 Bft) 97,87 %
10.10.2019 13:14 15,8 C 20,0 C 15,0 C 75 % 1013,6 hPa 0,0 l/m 2 min 0 min 751 W/m 25,7 km/h (4 Bft) 95,74 %
10.10.2019 13:16 15,8 C 20,6 C 15,0 C 74 % 1013,7 hPa 0,0 l/m 2 min 0 min 732 W/m 19,3 km/h (3 Bft) 97,87 %
10.10.2019 13:18 15,9 C 20,6 C 15,0 C 74 % 1013,7 hPa 0,0 l/m 2 min 0 min 671 W/m 12,9 km/h (3 Bft) 97,83 %
10.10.2019 13:20 15,9 C 20,0 C 16,1 C 74 % 1013,7 hPa 0,0 l/m 2 min 0 min 708 W/m 22,5 km/h (4 Bft) 97,87 %
10.10.2019 13:22 16,0 C 19,4 C 16,7 C 73 % 1013,8 hPa 0,0 l/m 2 min 0 min 287 W/m 16,1 km/h (3 Bft) 97,87 %
10.10.2019 13:24 16,1 C 20,0 C 16,7 C 73 % 1013,8 hPa 0,0 l/m 2 min 0 min 698 W/m 19,3 km/h (3 Bft) 93,62 %
10.10.2019 13:26 16,1 C 18,9 C 16,1 C 73 % 1013,8 hPa 0,0 l/m 2 min 0 min 675 W/m 16,1 km/h (3 Bft) 97,87 %
10.10.2019 13:28 16,1 C 18,3 C 15,6 C 73 % 1013,9 hPa 0,0 l/m 2 min 0 min 484 W/m 19,3 km/h (3 Bft) 97,87 %
10.10.2019 13:30 16,0 C 17,8 C 15,0 C 73 % 1013,9 hPa 0,0 l/m 2 min 0 min 367 W/m 16,1 km/h (3 Bft) 95,65 %
10.10.2019 13:32 16,0 C 17,2 C 15,0 C 73 % 1013,9 hPa 0,0 l/m 2 min 0 min 291 W/m 16,1 km/h (3 Bft) 97,87 %
10.10.2019 13:34 15,9 C 16,1 C 14,4 C 73 % 1013,9 hPa 0,0 l/m 0 min 0 min 174 W/m 22,5 km/h (4 Bft) 97,87 %
10.10.2019 13:36 15,9 C 16,1 C 14,4 C 73 % 1014,0 hPa 0,0 l/m 0 min 0 min 241 W/m 16,1 km/h (3 Bft) 97,87 %
10.10.2019 13:38 15,8 C 16,7 C 14,4 C 73 % 1013,9 hPa 0,0 l/m 0 min 0 min 170 W/m 19,3 km/h (3 Bft) 97,87 %
10.10.2019 13:40 15,7 C 18,3 C 14,4 C 73 % 1014,0 hPa 0,0 l/m 2 min 0 min 594 W/m 35,4 km/h (5 Bft) 93,62 %
10.10.2019 13:42 15,7 C 20,0 C 15,0 C 73 % 1014,0 hPa 0,0 l/m 2 min 0 min 709 W/m 12,9 km/h (3 Bft) 97,83 %
10.10.2019 13:44 15,8 C 18,9 C 15,0 C 74 % 1014,0 hPa 0,0 l/m 2 min 0 min 575 W/m 16,1 km/h (3 Bft) 97,87 %
10.10.2019 13:46 15,7 C 18,9 C 15,0 C 72 % 1013,9 hPa 0,0 l/m 0 min 0 min 183 W/m 25,7 km/h (4 Bft) 97,87 %
10.10.2019 13:48 15,7 C 17,2 C 14,4 C 72 % 1014,0 hPa 0,0 l/m 2 min 0 min 550 W/m 16,1 km/h (3 Bft) 97,87 %
10.10.2019 13:50 15,6 C 15,6 C 13,9 C 72 % 1013,9 hPa 0,0 l/m 0 min 0 min 105 W/m 12,9 km/h (3 Bft) 97,87 %
10.10.2019 13:52 15,6 C 15,6 C 13,9 C 72 % 1014,0 hPa 0,0 l/m 0 min 0 min 101 W/m 19,3 km/h (3 Bft) 97,87 %
10.10.2019 13:54 15,4 C 15,6 C 13,9 C 71 % 1013,9 hPa 0,0 l/m 0 min 0 min 160 W/m 22,5 km/h (4 Bft) 100,00 %
10.10.2019 13:56 15,4 C 15,6 C 13,9 C 72 % 1014,0 hPa 0,0 l/m 0 min 0 min 137 W/m 19,3 km/h (3 Bft) 100,00 %
10.10.2019 13:58 15,3 C 15,0 C 13,9 C 73 % 1014,0 hPa 0,0 l/m 0 min 0 min 113 W/m 16,1 km/h (3 Bft) 93,62 %
10.10.2019 14:00 15,2 C 17,2 C 13,9 C 73 % 1014,0 hPa 0,0 l/m 0 min 0 min 111 W/m 16,1 km/h (3 Bft) 100,00 %
10.10.2019 14:02 15,2 C 18,3 C 14,4 C 74 % 1014,0 hPa 0,0 l/m 2 min 0 min 307 W/m 12,9 km/h (3 Bft) 100,00 %
10.10.2019 14:04 15,3 C 18,3 C 14,4 C 74 % 1014,0 hPa 0,0 l/m 2 min 0 min 698 W/m 25,7 km/h (4 Bft) 97,83 %
10.10.2019 14:06 15,3 C 17,2 C 14,4 C 73 % 1014,0 hPa 0,0 l/m 2 min 0 min 422 W/m 16,1 km/h (3 Bft) 97,87 %
10.10.2019 14:08 15,3 C 16,7 C 14,4 C 72 % 1014,1 hPa 0,0 l/m 0 min 0 min 228 W/m 22,5 km/h (4 Bft) 97,87 %
10.10.2019 14:10 15,3 C 17,2 C 14,4 C 72 % 1014,2 hPa 0,0 l/m 0 min 0 min 252 W/m 16,1 km/h (3 Bft) 97,87 %
10.10.2019 14:12 15,4 C 18,9 C 15,0 C 73 % 1014,1 hPa 0,0 l/m 2 min 0 min 519 W/m 19,3 km/h (3 Bft) 97,87 %
10.10.2019 14:14 15,5 C 18,3 C 15,0 C 73 % 1014,2 hPa 0,0 l/m 2 min 0 min 573 W/m 16,1 km/h (3 Bft) 97,87 %
10.10.2019 14:16 15,6 C 16,7 C 15,0 C 72 % 1014,2 hPa 0,0 l/m 0 min 0 min 239 W/m 22,5 km/h (4 Bft) 97,83 %
10.10.2019 14:18 15,6 C 17,2 C 14,4 C 72 % 1014,1 hPa 0,0 l/m 0 min 0 min 194 W/m 19,3 km/h (3 Bft) 97,87 %
10.10.2019 14:20 15,6 C 17,2 C 14,4 C 72 % 1014,2 hPa 0,0 l/m 0 min 0 min 188 W/m 22,5 km/h (4 Bft) 100,00 %
10.10.2019 14:22 15,6 C 16,7 C 14,4 C 71 % 1014,2 hPa 0,0 l/m 0 min 0 min 188 W/m 19,3 km/h (3 Bft) 95,74 %
10.10.2019 14:24 15,6 C 15,6 C 14,4 C 71 % 1014,2 hPa 0,0 l/m 0 min 0 min 162 W/m 16,1 km/h (3 Bft) 97,87 %
10.10.2019 14:26 15,5 C 15,6 C 13,9 C 71 % 1014,2 hPa 0,0 l/m 0 min 0 min 155 W/m 12,9 km/h (3 Bft) 95,74 %
10.10.2019 14:28 15,4 C 16,7 C 13,9 C 72 % 1014,3 hPa 0,0 l/m 0 min 0 min 151 W/m 22,5 km/h (4 Bft) 97,83 %
10.10.2019 14:30 15,4 C 16,1 C 14,4 C 72 % 1014,3 hPa 0,0 l/m 0 min 0 min 157 W/m 16,1 km/h (3 Bft) 95,74 %
10.10.2019 14:32 15,4 C 17,2 C 14,4 C 72 % 1014,2 hPa 0,0 l/m 0 min 0 min 179 W/m 25,7 km/h (4 Bft) 95,74 %
10.10.2019 14:34 15,4 C 18,9 C 15,0 C 72 % 1014,3 hPa 0,0 l/m 2 min 0 min 457 W/m 19,3 km/h (3 Bft) 97,87 %
10.10.2019 14:36 15,6 C 18,3 C 15,0 C 73 % 1014,3 hPa 0,0 l/m 2 min 0 min 581 W/m 12,9 km/h (3 Bft) 97,87 %
10.10.2019 14:38 15,6 C 17,2 C 15,0 C 72 % 1014,3 hPa 0,0 l/m 0 min 0 min 171 W/m 16,1 km/h (3 Bft) 95,74 %
10.10.2019 14:40 15,6 C 16,1 C 15,0 C 72 % 1014,2 hPa 0,0 l/m 0 min 0 min 169 W/m 29,0 km/h (5 Bft) 97,83 %
10.10.2019 14:42 15,6 C 15,6 C 14,4 C 71 % 1014,2 hPa 0,0 l/m 0 min 0 min 154 W/m 12,9 km/h (3 Bft) 97,87 %
10.10.2019 14:44 15,6 C 15,6 C 14,4 C 71 % 1014,3 hPa 0,0 l/m 0 min 0 min 143 W/m 16,1 km/h (3 Bft) 97,87 %
10.10.2019 14:46 15,6 C 15,0 C 14,4 C 71 % 1014,3 hPa 0,0 l/m 0 min 0 min 150 W/m 16,1 km/h (3 Bft) 97,87 %
10.10.2019 14:48 15,6 C 15,6 C 14,4 C 71 % 1014,2 hPa 0,0 l/m 0 min 0 min 195 W/m 12,9 km/h (3 Bft) 95,74 %
10.10.2019 14:50 15,5 C 16,1 C 14,4 C 71 % 1014,3 hPa 0,0 l/m 2 min 0 min 259 W/m 16,1 km/h (3 Bft) 97,87 %
10.10.2019 14:52 15,5 C 16,7 C 14,4 C 71 % 1014,2 hPa 0,0 l/m 0 min 0 min 232 W/m 12,9 km/h (3 Bft) 97,83 %
10.10.2019 14:54 15,6 C 18,9 C 15,0 C 71 % 1014,2 hPa 0,0 l/m 2 min 0 min 563 W/m 16,1 km/h (3 Bft) 97,87 %
10.10.2019 14:56 15,6 C 17,8 C 15,0 C 71 % 1014,2 hPa 0,0 l/m 2 min 0 min 612 W/m 16,1 km/h (3 Bft) 97,87 %
10.10.2019 14:58 15,6 C 17,8 C 15,0 C 70 % 1014,2 hPa 0,0 l/m 2 min 0 min 596 W/m 19,3 km/h (3 Bft) 97,87 %
10.10.2019 15:00 15,7 C 17,8 C 15,0 C 71 % 1014,1 hPa 0,0 l/m 2 min 0 min 596 W/m 16,1 km/h (3 Bft) 95,74 %
10.10.2019 15:02 15,7 C 17,2 C 15,0 C 70 % 1014,1 hPa 0,0 l/m 2 min 0 min 290 W/m 19,3 km/h (3 Bft) 97,87 %
10.10.2019 15:04 15,7 C 16,7 C 15,0 C 70 % 1014,1 hPa 0,0 l/m 0 min 0 min 225 W/m 19,3 km/h (3 Bft) 97,83 %
10.10.2019 15:06 15,7 C 16,1 C 15,0 C 70 % 1014,1 hPa 0,0 l/m 0 min 0 min 219 W/m 16,1 km/h (3 Bft) 97,87 %
10.10.2019 15:08 15,7 C 16,7 C 15,0 C 70 % 1014,2 hPa 0,0 l/m 2 min 0 min 240 W/m 16,1 km/h (3 Bft) 97,87 %
10.10.2019 15:10 15,7 C 16,1 C 15,0 C 69 % 1014,1 hPa 0,0 l/m 2 min 0 min 255 W/m 22,5 km/h (4 Bft) 93,62 %
10.10.2019 15:12 15,7 C 16,1 C 14,4 C 69 % 1014,1 hPa 0,0 l/m 0 min 0 min 187 W/m 22,5 km/h (4 Bft) 95,74 %
10.10.2019 15:14 15,7 C 16,1 C 14,4 C 70 % 1014,2 hPa 0,0 l/m 0 min 0 min 175 W/m 9,7 km/h (2 Bft) 93,62 %
10.10.2019 15:16 15,7 C 15,6 C 14,4 C 70 % 1014,2 hPa 0,0 l/m 0 min 0 min 148 W/m 12,9 km/h (3 Bft) 95,65 %
10.10.2019 15:18 15,6 C 15,6 C 13,9 C 70 % 1014,2 hPa 0,0 l/m 0 min 0 min 120 W/m 12,9 km/h (3 Bft) 95,74 %
10.10.2019 15:20 15,6 C 15,0 C 13,9 C 70 % 1014,2 hPa 0,0 l/m 0 min 0 min 89 W/m 12,9 km/h (3 Bft) 95,74 %
10.10.2019 15:22 15,6 C 15,0 C 13,9 C 70 % 1014,3 hPa 0,0 l/m 0 min 0 min 88 W/m 19,3 km/h (3 Bft) 95,74 %
10.10.2019 15:24 15,5 C 16,7 C 13,9 C 69 % 1014,2 hPa 0,0 l/m 0 min 0 min 134 W/m 16,1 km/h (3 Bft) 93,62 %
10.10.2019 15:26 15,5 C 18,3 C 14,4 C 70 % 1014,3 hPa 0,0 l/m 2 min 0 min 334 W/m 16,1 km/h (3 Bft) 97,83 %
10.10.2019 15:28 15,6 C 20,0 C 14,4 C 70 % 1014,1 hPa 0,0 l/m 2 min 0 min 527 W/m 12,9 km/h (3 Bft) 97,87 %
10.10.2019 15:30 15,6 C 20,0 C 15,0 C 70 % 1014,2 hPa 0,0 l/m 2 min 0 min 508 W/m 12,9 km/h (3 Bft) 97,87 %
10.10.2019 15:32 15,7 C 20,6 C 15,0 C 71 % 1014,2 hPa 0,0 l/m 2 min 0 min 498 W/m 9,7 km/h (2 Bft) 97,87 %
10.10.2019 15:34 15,8 C 20,6 C 15,0 C 71 % 1014,2 hPa 0,0 l/m 2 min 0 min 519 W/m 19,3 km/h (3 Bft) 97,87 %
10.10.2019 15:36 15,9 C 20,6 C 15,0 C 70 % 1014,3 hPa 0,0 l/m 2 min 0 min 531 W/m 12,9 km/h (3 Bft) 95,74 %
10.10.2019 15:38 16,0 C 18,3 C 15,0 C 70 % 1014,3 hPa 0,0 l/m 0 min 0 min 183 W/m 19,3 km/h (3 Bft) 95,65 %
10.10.2019 15:40 16,0 C 17,2 C 15,0 C 69 % 1014,4 hPa 0,0 l/m 0 min 0 min 191 W/m 19,3 km/h (3 Bft) 95,74 %
10.10.2019 15:42 16,0 C 16,7 C 15,0 C 68 % 1014,4 hPa 0,0 l/m 2 min 0 min 214 W/m 22,5 km/h (4 Bft) 93,62 %
10.10.2019 15:44 16,0 C 16,1 C 15,0 C 68 % 1014,4 hPa 0,0 l/m 0 min 0 min 174 W/m 19,3 km/h (3 Bft) 95,74 %
10.10.2019 15:46 15,9 C 15,6 C 14,4 C 68 % 1014,4 hPa 0,0 l/m 0 min 0 min 116 W/m 16,1 km/h (3 Bft) 93,62 %
10.10.2019 15:48 15,9 C 16,1 C 14,4 C 68 % 1014,4 hPa 0,0 l/m 0 min 0 min 114 W/m 22,5 km/h (4 Bft) 95,74 %
10.10.2019 15:50 15,9 C 16,7 C 14,4 C 68 % 1014,4 hPa 0,0 l/m 2 min 0 min 431 W/m 16,1 km/h (3 Bft) 93,48 %
10.10.2019 15:52 15,8 C 16,1 C 14,4 C 69 % 1014,4 hPa 0,0 l/m 0 min 0 min 131 W/m 16,1 km/h (3 Bft) 95,74 %
10.10.2019 15:54 15,8 C 17,2 C 14,4 C 69 % 1014,5 hPa 0,0 l/m 2 min 0 min 260 W/m 16,1 km/h (3 Bft) 95,74 %
10.10.2019 15:56 15,8 C 16,7 C 14,4 C 69 % 1014,4 hPa 0,0 l/m 2 min 0 min 361 W/m 16,1 km/h (3 Bft) 100,00 %
10.10.2019 15:58 15,8 C 17,2 C 14,4 C 69 % 1014,4 hPa 0,0 l/m 0 min 0 min 95 W/m 12,9 km/h (3 Bft) 97,87 %
10.10.2019 16:00 15,8 C 18,3 C 14,4 C 69 % 1014,4 hPa 0,0 l/m 2 min 0 min 393 W/m 16,1 km/h (3 Bft) 93,62 %
10.10.2019 16:02 15,9 C 17,8 C 14,4 C 69 % 1014,4 hPa 0,0 l/m 2 min 0 min 300 W/m 19,3 km/h (3 Bft) 97,83 %
10.10.2019 16:04 15,9 C 18,3 C 15,0 C 69 % 1014,5 hPa 0,0 l/m 2 min 0 min 376 W/m 22,5 km/h (4 Bft) 97,87 %
10.10.2019 16:06 15,9 C 19,4 C 15,0 C 68 % 1014,5 hPa 0,0 l/m 2 min 0 min 472 W/m 16,1 km/h (3 Bft) 97,87 %
10.10.2019 16:08 16,1 C 20,0 C 15,0 C 69 % 1014,5 hPa 0,0 l/m 2 min 0 min 419 W/m 12,9 km/h (3 Bft) 93,62 %
10.10.2019 16:10 16,1 C 19,4 C 15,0 C 68 % 1014,4 hPa 0,0 l/m 2 min 0 min 385 W/m 25,7 km/h (4 Bft) 95,74 %
10.10.2019 16:12 16,2 C 19,4 C 15,0 C 68 % 1014,5 hPa 0,0 l/m 2 min 0 min 407 W/m 19,3 km/h (3 Bft) 95,74 %
10.10.2019 16:14 16,2 C 20,0 C 15,0 C 69 % 1014,5 hPa 0,0 l/m 2 min 0 min 427 W/m 19,3 km/h (3 Bft) 97,83 %
10.10.2019 16:16 16,3 C 19,4 C 15,0 C 68 % 1014,5 hPa 0,0 l/m 2 min 0 min 432 W/m 19,3 km/h (3 Bft) 97,87 %
10.10.2019 16:18 16,3 C 18,9 C 15,0 C 67 % 1014,5 hPa 0,0 l/m 2 min 0 min 398 W/m 22,5 km/h (4 Bft) 95,74 %
10.10.2019 16:20 16,4 C 17,2 C 15,0 C 67 % 1014,5 hPa 0,0 l/m 2 min 0 min 305 W/m 19,3 km/h (3 Bft) 97,87 %
10.10.2019 16:22 16,4 C 16,7 C 15,0 C 66 % 1014,5 hPa 0,0 l/m 0 min 0 min 164 W/m 12,9 km/h (3 Bft) 97,87 %
10.10.2019 16:24 16,3 C 17,2 C 15,0 C 67 % 1014,4 hPa 0,0 l/m 2 min 0 min 187 W/m 9,7 km/h (2 Bft) 100,00 %
10.10.2019 16:26 16,3 C 17,2 C 15,0 C 67 % 1014,5 hPa 0,0 l/m 0 min 0 min 160 W/m 29,0 km/h (5 Bft) 100,00 %
10.10.2019 16:28 16,3 C 18,3 C 15,0 C 66 % 1014,5 hPa 0,0 l/m 2 min 0 min 334 W/m 25,7 km/h (4 Bft) 100,00 %
10.10.2019 16:30 16,3 C 18,9 C 15,0 C 67 % 1014,5 hPa 0,0 l/m 2 min 0 min 405 W/m 19,3 km/h (3 Bft) 100,00 %
10.10.2019 16:32 16,3 C 18,3 C 15,6 C 67 % 1014,4 hPa 0,0 l/m 2 min 0 min 390 W/m 25,7 km/h (4 Bft) 97,87 %
10.10.2019 16:34 16,3 C 18,9 C 16,1 C 67 % 1014,5 hPa 0,0 l/m 2 min 0 min 369 W/m 16,1 km/h (3 Bft) 100,00 %
10.10.2019 16:36 16,3 C 18,3 C 16,1 C 66 % 1014,5 hPa 0,0 l/m 2 min 0 min 267 W/m 19,3 km/h (3 Bft) 97,83 %
10.10.2019 16:38 16,4 C 18,9 C 16,1 C 67 % 1014,6 hPa 0,0 l/m 2 min 0 min 256 W/m 12,9 km/h (3 Bft) 100,00 %
10.10.2019 16:40 16,3 C 17,8 C 15,6 C 66 % 1014,5 hPa 0,0 l/m 2 min 0 min 283 W/m 19,3 km/h (3 Bft) 100,00 %
10.10.2019 16:42 16,3 C 17,2 C 15,0 C 66 % 1014,6 hPa 0,0 l/m 0 min 0 min 116 W/m 16,1 km/h (3 Bft) 100,00 %
10.10.2019 16:44 16,3 C 17,8 C 15,0 C 66 % 1014,5 hPa 0,0 l/m 2 min 0 min 249 W/m 19,3 km/h (3 Bft) 100,00 %
10.10.2019 16:46 16,3 C 18,3 C 15,0 C 66 % 1014,6 hPa 0,0 l/m 2 min 0 min 328 W/m 22,5 km/h (4 Bft) 97,87 %
10.10.2019 16:48 16,3 C 18,3 C 15,0 C 67 % 1014,6 hPa 0,0 l/m 2 min 0 min 321 W/m 12,9 km/h (3 Bft) 100,00 %
10.10.2019 16:50 16,3 C 18,3 C 15,0 C 66 % 1014,6 hPa 0,0 l/m 2 min 0 min 303 W/m 19,3 km/h (3 Bft) 100,00 %
10.10.2019 16:52 16,3 C 18,3 C 15,0 C 66 % 1014,5 hPa 0,0 l/m 2 min 0 min 270 W/m 16,1 km/h (3 Bft) 97,87 %
10.10.2019 16:54 16,3 C 18,3 C 15,0 C 67 % 1014,6 hPa 0,0 l/m 2 min 0 min 279 W/m 6,4 km/h (2 Bft) 100,00 %
10.10.2019 16:56 16,3 C 18,3 C 15,0 C 68 % 1014,6 hPa 0,0 l/m 2 min 0 min 256 W/m 12,9 km/h (3 Bft) 100,00 %
10.10.2019 16:58 16,4 C 18,3 C 15,0 C 68 % 1014,5 hPa 0,0 l/m 2 min 0 min 253 W/m 19,3 km/h (3 Bft) 100,00 %
10.10.2019 17:00 16,3 C 18,9 C 15,0 C 67 % 1014,5 hPa 0,0 l/m 2 min 0 min 252 W/m 16,1 km/h (3 Bft) 100,00 %
10.10.2019 17:02 16,4 C 17,8 C 15,0 C 68 % 1014,5 hPa 0,0 l/m 2 min 0 min 216 W/m 19,3 km/h (3 Bft) 100,00 %
10.10.2019 17:04 16,3 C 17,8 C 14,4 C 67 % 1014,6 hPa 0,0 l/m 2 min 0 min 145 W/m 12,9 km/h (3 Bft) 100,00 %
10.10.2019 17:06 16,4 C 18,3 C 14,4 C 68 % 1014,6 hPa 0,0 l/m 2 min 0 min 255 W/m 19,3 km/h (3 Bft) 100,00 %
10.10.2019 17:08 16,3 C 18,3 C 14,4 C 67 % 1014,6 hPa 0,0 l/m 2 min 0 min 235 W/m 25,7 km/h (4 Bft) 100,00 %
10.10.2019 17:10 16,3 C 18,3 C 14,4 C 68 % 1014,6 hPa 0,0 l/m 2 min 0 min 234 W/m 12,9 km/h (3 Bft) 100,00 %
10.10.2019 17:12 16,3 C 16,7 C 14,4 C 67 % 1014,7 hPa 0,0 l/m 2 min 0 min 224 W/m 19,3 km/h (3 Bft) 100,00 %
10.10.2019 17:14 16,2 C 16,1 C 14,4 C 66 % 1014,6 hPa 0,0 l/m 0 min 0 min 69 W/m 29,0 km/h (5 Bft) 100,00 %
10.10.2019 17:16 16,1 C 16,1 C 13,9 C 66 % 1014,6 hPa 0,0 l/m 2 min 0 min 138 W/m 19,3 km/h (3 Bft) 100,00 %
10.10.2019 17:18 16,1 C 16,7 C 14,4 C 67 % 1014,7 hPa 0,0 l/m 2 min 0 min 200 W/m 16,1 km/h (3 Bft) 100,00 %
10.10.2019 17:20 16,1 C 16,7 C 13,9 C 67 % 1014,7 hPa 0,0 l/m 2 min 0 min 194 W/m 22,5 km/h (4 Bft) 100,00 %
10.10.2019 17:22 16,0 C 16,7 C 13,9 C 67 % 1014,6 hPa 0,0 l/m 2 min 0 min 186 W/m 16,1 km/h (3 Bft) 100,00 %
10.10.2019 17:24 15,9 C 16,7 C 13,9 C 68 % 1014,7 hPa 0,0 l/m 2 min 0 min 181 W/m 9,7 km/h (2 Bft) 100,00 %
10.10.2019 17:26 15,9 C 16,7 C 13,9 C 68 % 1014,6 hPa 0,0 l/m 2 min 0 min 175 W/m 16,1 km/h (3 Bft) 100,00 %
10.10.2019 17:28 15,9 C 16,7 C 13,9 C 68 % 1014,7 hPa 0,0 l/m 2 min 0 min 169 W/m 12,9 km/h (3 Bft) 100,00 %
10.10.2019 17:30 15,8 C 16,7 C 13,9 C 68 % 1014,7 hPa 0,0 l/m 2 min 0 min 160 W/m 22,5 km/h (4 Bft) 100,00 %
10.10.2019 17:32 15,8 C 15,6 C 13,9 C 67 % 1014,7 hPa 0,0 l/m 0 min 0 min 84 W/m 16,1 km/h (3 Bft) 100,00 %
10.10.2019 17:34 15,8 C 16,1 C 13,9 C 68 % 1014,7 hPa 0,0 l/m 2 min 0 min 127 W/m 16,1 km/h (3 Bft) 100,00 %
10.10.2019 17:36 15,7 C 16,1 C 13,9 C 68 % 1014,7 hPa 0,0 l/m 2 min 0 min 147 W/m 16,1 km/h (3 Bft) 100,00 %
10.10.2019 17:38 15,7 C 16,7 C 13,9 C 69 % 1014,8 hPa 0,0 l/m 2 min 0 min 119 W/m 12,9 km/h (3 Bft) 100,00 %
10.10.2019 17:40 15,7 C 16,1 C 13,9 C 69 % 1014,8 hPa 0,0 l/m 2 min 0 min 125 W/m 12,9 km/h (3 Bft) 100,00 %
10.10.2019 17:42 15,7 C 15,6 C 13,9 C 69 % 1014,9 hPa 0,0 l/m 0 min 0 min 77 W/m 19,3 km/h (3 Bft) 100,00 %
10.10.2019 17:44 15,6 C 15,0 C 13,9 C 69 % 1014,8 hPa 0,0 l/m 0 min 0 min 46 W/m 16,1 km/h (3 Bft) 97,87 %
10.10.2019 17:46 15,6 C 14,4 C 13,9 C 69 % 1014,9 hPa 0,0 l/m 0 min 0 min 49 W/m 19,3 km/h (3 Bft) 100,00 %
10.10.2019 17:48 15,5 C 14,4 C 13,9 C 69 % 1014,9 hPa 0,0 l/m 0 min 0 min 45 W/m 16,1 km/h (3 Bft) 95,74 %
10.10.2019 17:50 15,4 C 14,4 C 13,9 C 69 % 1014,9 hPa 0,0 l/m 0 min 0 min 45 W/m 19,3 km/h (3 Bft) 97,87 %
10.10.2019 17:52 15,4 C 14,4 C 13,9 C 69 % 1014,9 hPa 0,0 l/m 0 min 0 min 44 W/m 22,5 km/h (4 Bft) 95,74 %
10.10.2019 17:54 15,3 C 14,4 C 13,9 C 69 % 1014,9 hPa 0,0 l/m 0 min 0 min 41 W/m 19,3 km/h (3 Bft) 93,62 %
10.10.2019 17:56 15,3 C 14,4 C 13,9 C 70 % 1014,8 hPa 0,0 l/m 0 min 0 min 40 W/m 12,9 km/h (3 Bft) 95,74 %
10.10.2019 17:58 15,3 C 14,4 C 13,3 C 70 % 1014,9 hPa 0,0 l/m 0 min 0 min 36 W/m 12,9 km/h (3 Bft) 93,48 %
10.10.2019 18:00 15,2 C 13,9 C 13,3 C 71 % 1014,8 hPa 0,0 l/m 0 min 0 min 39 W/m 19,3 km/h (3 Bft) 97,87 %
10.10.2019 18:02 15,2 C 13,9 C 13,3 C 71 % 1014,8 hPa 0,0 l/m 0 min 0 min 44 W/m 16,1 km/h (3 Bft) 95,74 %
10.10.2019 18:04 15,2 C 13,9 C 13,3 C 71 % 1014,9 hPa 0,0 l/m 0 min 0 min 40 W/m 6,4 km/h (2 Bft) 93,62 %
10.10.2019 18:08 15,1 C 13,9 C 13,3 C 72 % 1015,0 hPa 0,0 l/m 0 min 0 min 34 W/m 12,9 km/h (3 Bft) 94,68 %
10.10.2019 18:10 15,1 C 13,9 C 13,3 C 72 % 1015,0 hPa 0,0 l/m 0 min 0 min 32 W/m 9,7 km/h (2 Bft) 93,48 %
10.10.2019 18:12 15,0 C 13,9 C 13,3 C 73 % 1015,0 hPa 0,0 l/m 0 min 0 min 33 W/m 12,9 km/h (3 Bft) 93,62 %
10.10.2019 18:14 15,0 C 13,9 C 13,3 C 73 % 1015,0 hPa 0,0 l/m 0 min 0 min 33 W/m 9,7 km/h (2 Bft) 93,62 %
10.10.2019 18:16 15,0 C 13,9 C 12,8 C 73 % 1015,0 hPa 0,0 l/m 0 min 0 min 32 W/m 16,1 km/h (3 Bft) 93,62 %
10.10.2019 18:18 14,9 C 13,9 C 12,8 C 73 % 1015,0 hPa 0,0 l/m 0 min 0 min 30 W/m 6,4 km/h (2 Bft) 91,49 %
10.10.2019 18:20 14,9 C 13,9 C 12,8 C 73 % 1015,1 hPa 0,0 l/m 0 min 0 min 28 W/m 16,1 km/h (3 Bft) 93,62 %
10.10.2019 18:22 14,8 C 13,9 C 12,8 C 74 % 1015,0 hPa 0,0 l/m 0 min 0 min 26 W/m 12,9 km/h (3 Bft) 93,48 %
10.10.2019 18:24 14,8 C 13,3 C 12,8 C 74 % 1015,0 hPa 0,0 l/m 0 min 0 min 25 W/m 12,9 km/h (3 Bft) 93,62 %
10.10.2019 18:26 14,8 C 13,3 C 12,8 C 74 % 1015,1 hPa 0,0 l/m 0 min 0 min 24 W/m 12,9 km/h (3 Bft) 93,62 %
10.10.2019 18:28 14,7 C 13,3 C 12,8 C 74 % 1015,1 hPa 0,0 l/m 0 min 0 min 22 W/m 6,4 km/h (2 Bft) 95,74 %
10.10.2019 18:30 14,7 C 13,3 C 12,8 C 74 % 1015,1 hPa 0,0 l/m 0 min 0 min 21 W/m 6,4 km/h (2 Bft) 93,62 %
10.10.2019 18:32 14,7 C 13,3 C 12,8 C 75 % 1015,1 hPa 0,0 l/m 0 min 0 min 19 W/m 6,4 km/h (2 Bft) 93,62 %
10.10.2019 18:34 14,7 C 13,3 C 12,8 C 75 % 1015,1 hPa 0,0 l/m 0 min 0 min 17 W/m 6,4 km/h (2 Bft) 89,13 %
10.10.2019 18:36 14,6 C 13,3 C 12,8 C 75 % 1015,1 hPa 0,0 l/m 0 min 0 min 14 W/m 6,4 km/h (2 Bft) 91,49 %
10.10.2019 18:38 14,6 C 13,3 C 12,8 C 75 % 1015,1 hPa 0,0 l/m 0 min 0 min 12 W/m 6,4 km/h (2 Bft) 93,62 %
10.10.2019 18:40 14,6 C 12,8 C 12,2 C 76 % 1015,2 hPa 0,0 l/m 0 min 0 min 11 W/m 6,4 km/h (2 Bft) 93,62 %
10.10.2019 18:42 14,5 C 12,8 C 12,2 C 76 % 1015,2 hPa 0,0 l/m 0 min 0 min 9 W/m 6,4 km/h (2 Bft) 95,74 %
10.10.2019 18:44 14,4 C 12,8 C 12,2 C 76 % 1015,3 hPa 0,0 l/m 0 min 0 min 8 W/m 12,9 km/h (3 Bft) 93,48 %
10.10.2019 18:46 14,4 C 12,8 C 12,2 C 76 % 1015,3 hPa 0,0 l/m 0 min 0 min 7 W/m 6,4 km/h (2 Bft) 97,87 %
10.10.2019 18:48 14,3 C 12,8 C 12,2 C 77 % 1015,3 hPa 0,0 l/m 0 min 0 min 7 W/m 12,9 km/h (3 Bft) 95,74 %
10.10.2019 18:50 14,3 C 12,8 C 12,2 C 77 % 1015,3 hPa 0,0 l/m 0 min 0 min 5 W/m 12,9 km/h (3 Bft) 95,74 %
10.10.2019 18:52 14,3 C 12,8 C 12,2 C 78 % 1015,3 hPa 0,0 l/m 0 min 0 min 5 W/m 6,4 km/h (2 Bft) 95,74 %
10.10.2019 18:54 14,3 C 12,8 C 12,2 C 78 % 1015,4 hPa 0,0 l/m 0 min 0 min 4 W/m 12,9 km/h (3 Bft) 93,62 %
10.10.2019 18:56 14,3 C 12,8 C 12,2 C 78 % 1015,4 hPa 0,0 l/m 0 min 0 min 0 W/m 6,4 km/h (2 Bft) 93,48 %
10.10.2019 18:58 14,3 C 12,8 C 12,2 C 78 % 1015,4 hPa 0,0 l/m 0 min 0 min 0 W/m 19,3 km/h (3 Bft) 100,00 %
10.10.2019 19:00 14,2 C 12,8 C 12,2 C 79 % 1015,4 hPa 0,0 l/m 0 min 0 min 0 W/m 6,4 km/h (2 Bft) 100,00 %
10.10.2019 19:02 14,1 C 12,8 C 12,2 C 79 % 1015,3 hPa 0,0 l/m 0 min 0 min 0 W/m 12,9 km/h (3 Bft) 100,00 %
10.10.2019 19:04 14,1 C 12,8 C 12,2 C 79 % 1015,3 hPa 0,0 l/m 0 min 0 min 0 W/m 9,7 km/h (2 Bft) 95,74 %
10.10.2019 19:06 14,1 C 12,8 C 12,2 C 79 % 1015,4 hPa 0,0 l/m 0 min 0 min 0 W/m 9,7 km/h (2 Bft) 97,87 %
10.10.2019 19:08 14,1 C 12,8 C 12,2 C 79 % 1015,4 hPa 0,0 l/m 0 min 0 min 0 W/m 3,2 km/h (1 Bft) 100,00 %
10.10.2019 19:10 14,0 C 12,8 C 12,2 C 80 % 1015,5 hPa 0,0 l/m 0 min 0 min 0 W/m 6,4 km/h (2 Bft) 100,00 %
10.10.2019 19:12 13,9 C 12,2 C 12,2 C 80 % 1015,4 hPa 0,0 l/m 0 min 0 min 0 W/m 6,4 km/h (2 Bft) 97,87 %
10.10.2019 19:14 13,9 C 12,2 C 12,2 C 80 % 1015,5 hPa 0,0 l/m 0 min 0 min 0 W/m 6,4 km/h (2 Bft) 100,00 %
10.10.2019 19:16 13,9 C 12,2 C 12,2 C 80 % 1015,5 hPa 0,0 l/m 0 min 0 min 0 W/m 6,4 km/h (2 Bft) 100,00 %
10.10.2019 19:18 13,8 C 12,2 C 12,2 C 80 % 1015,5 hPa 0,0 l/m 0 min 0 min 0 W/m 3,2 km/h (1 Bft) 100,00 %
10.10.2019 19:20 13,8 C 12,2 C 11,7 C 80 % 1015,5 hPa 0,0 l/m 0 min 0 min 0 W/m 12,9 km/h (3 Bft) 100,00 %
10.10.2019 19:22 13,8 C 12,2 C 11,7 C 80 % 1015,5 hPa 0,0 l/m 0 min 0 min 0 W/m 6,4 km/h (2 Bft) 97,87 %
10.10.2019 19:24 13,7 C 12,2 C 11,7 C 81 % 1015,6 hPa 0,0 l/m 0 min 0 min 0 W/m 9,7 km/h (2 Bft) 100,00 %
10.10.2019 19:26 13,7 C 12,2 C 12,2 C 81 % 1015,5 hPa 0,0 l/m 0 min 0 min 0 W/m 16,1 km/h (3 Bft) 100,00 %
10.10.2019 19:28 13,7 C 12,2 C 12,2 C 81 % 1015,6 hPa 0,0 l/m 0 min 0 min 0 W/m 16,1 km/h (3 Bft) 100,00 %
10.10.2019 19:30 13,6 C 12,2 C 12,2 C 81 % 1015,7 hPa 0,0 l/m 0 min 0 min 0 W/m 12,9 km/h (3 Bft) 100,00 %
10.10.2019 19:32 13,6 C 12,2 C 12,2 C 81 % 1015,7 hPa 0,0 l/m 0 min 0 min 0 W/m 19,3 km/h (3 Bft) 100,00 %
10.10.2019 19:34 13,6 C 12,2 C 12,2 C 81 % 1015,7 hPa 0,0 l/m 0 min 0 min 0 W/m 16,1 km/h (3 Bft) 100,00 %
10.10.2019 19:36 13,6 C 12,2 C 12,2 C 81 % 1015,8 hPa 0,0 l/m 0 min 0 min 0 W/m 16,1 km/h (3 Bft) 100,00 %
10.10.2019 19:38 13,6 C 12,2 C 12,2 C 81 % 1015,8 hPa 0,0 l/m 0 min 0 min 0 W/m 22,5 km/h (4 Bft) 97,87 %
10.10.2019 19:40 13,6 C 12,2 C 12,2 C 81 % 1015,8 hPa 0,0 l/m 0 min 0 min 0 W/m 12,9 km/h (3 Bft) 100,00 %
10.10.2019 19:42 13,5 C 12,2 C 12,2 C 82 % 1015,8 hPa 0,0 l/m 0 min 0 min 0 W/m 16,1 km/h (3 Bft) 97,83 %
10.10.2019 19:44 13,5 C 12,2 C 11,7 C 82 % 1015,8 hPa 0,0 l/m 0 min 0 min 0 W/m 12,9 km/h (3 Bft) 100,00 %
10.10.2019 19:46 13,5 C 12,2 C 11,7 C 82 % 1015,8 hPa 0,0 l/m 0 min 0 min 0 W/m 12,9 km/h (3 Bft) 100,00 %
10.10.2019 19:48 13,4 C 12,2 C 11,7 C 82 % 1015,8 hPa 0,0 l/m 0 min 0 min 0 W/m 6,4 km/h (2 Bft) 100,00 %
10.10.2019 19:50 13,4 C 12,2 C 11,7 C 82 % 1015,8 hPa 0,0 l/m 0 min 0 min 0 W/m 12,9 km/h (3 Bft) 100,00 %
10.10.2019 19:52 13,4 C 12,2 C 11,7 C 82 % 1015,8 hPa 0,0 l/m 0 min 0 min 0 W/m 12,9 km/h (3 Bft) 100,00 %
10.10.2019 19:54 13,4 C 12,2 C 11,7 C 82 % 1015,9 hPa 0,0 l/m 0 min 0 min 0 W/m 6,4 km/h (2 Bft) 100,00 %
10.10.2019 19:56 13,4 C 12,2 C 11,7 C 82 % 1015,9 hPa 0,0 l/m 0 min 0 min 0 W/m 6,4 km/h (2 Bft) 100,00 %
10.10.2019 19:58 13,3 C 11,7 C 11,7 C 82 % 1015,9 hPa 0,0 l/m 0 min 0 min 0 W/m 12,9 km/h (3 Bft) 100,00 %
10.10.2019 20:00 13,3 C 12,2 C 11,7 C 82 % 1015,9 hPa 0,0 l/m 0 min 0 min 0 W/m 16,1 km/h (3 Bft) 100,00 %
10.10.2019 20:02 13,3 C 12,2 C 11,7 C 82 % 1015,9 hPa 0,0 l/m 0 min 0 min 0 W/m 6,4 km/h (2 Bft) 98,11 %
10.10.2019 20:04 13,3 C 12,2 C 11,7 C 82 % 1015,9 hPa 0,0 l/m 0 min 0 min 0 W/m 12,9 km/h (3 Bft) 100,00 %
10.10.2019 20:06 13,2 C 11,7 C 11,7 C 83 % 1015,8 hPa 0,0 l/m 0 min 0 min 0 W/m 9,7 km/h (2 Bft) 100,00 %
10.10.2019 20:08 13,2 C 11,7 C 11,7 C 83 % 1015,9 hPa 0,0 l/m 0 min 0 min 0 W/m 6,4 km/h (2 Bft) 100,00 %
10.10.2019 20:10 13,2 C 12,2 C 11,7 C 83 % 1015,8 hPa 0,0 l/m 0 min 0 min 0 W/m 12,9 km/h (3 Bft) 100,00 %
10.10.2019 20:12 13,2 C 12,2 C 11,7 C 83 % 1015,9 hPa 0,0 l/m 0 min 0 min 0 W/m 16,1 km/h (3 Bft) 100,00 %
10.10.2019 20:14 13,1 C 12,2 C 11,7 C 83 % 1015,9 hPa 0,0 l/m 0 min 0 min 0 W/m 12,9 km/h (3 Bft) 95,74 %
10.10.2019 20:16 13,1 C 11,7 C 11,7 C 83 % 1015,8 hPa 0,0 l/m 0 min 0 min 0 W/m 16,1 km/h (3 Bft) 100,00 %
10.10.2019 20:18 13,1 C 11,7 C 11,7 C 83 % 1015,8 hPa 0,0 l/m 0 min 0 min 0 W/m 16,1 km/h (3 Bft) 98,00 %
10.10.2019 20:20 13,1 C 12,2 C 11,7 C 84 % 1015,9 hPa 0,0 l/m 0 min 0 min 0 W/m 19,3 km/h (3 Bft) 100,00 %
10.10.2019 20:22 13,1 C 12,2 C 11,7 C 84 % 1015,9 hPa 0,0 l/m 0 min 0 min 0 W/m 16,1 km/h (3 Bft) 100,00 %
10.10.2019 20:24 13,1 C 12,2 C 11,7 C 84 % 1015,9 hPa 0,0 l/m 0 min 0 min 0 W/m 22,5 km/h (4 Bft) 95,24 %
10.10.2019 20:26 13,0 C 12,2 C 11,7 C 84 % 1015,9 hPa 0,0 l/m 0 min 0 min 0 W/m 16,1 km/h (3 Bft) 96,00 %
10.10.2019 20:28 13,0 C 12,2 C 11,7 C 84 % 1015,9 hPa 0,0 l/m 0 min 0 min 0 W/m 12,9 km/h (3 Bft) 97,96 %
10.10.2019 20:30 12,9 C 12,2 C 11,7 C 84 % 1015,9 hPa 0,0 l/m 0 min 0 min 0 W/m 16,1 km/h (3 Bft) 97,87 %
10.10.2019 20:32 12,9 C 12,2 C 11,7 C 84 % 1015,9 hPa 0,0 l/m 0 min 0 min 0 W/m 16,1 km/h (3 Bft) 95,12 %
10.10.2019 20:34 12,9 C 12,2 C 11,7 C 85 % 1015,8 hPa 0,0 l/m 0 min 0 min 0 W/m 12,9 km/h (3 Bft) 96,00 %
10.10.2019 20:36 12,9 C 11,7 C 11,7 C 85 % 1015,8 hPa 0,0 l/m 0 min 0 min 0 W/m 16,1 km/h (3 Bft) 97,96 %
10.10.2019 20:38 12,9 C 11,7 C 11,7 C 85 % 1015,9 hPa 0,0 l/m 0 min 0 min 0 W/m 12,9 km/h (3 Bft) 97,87 %
10.10.2019 20:40 12,9 C 11,7 C 11,7 C 85 % 1016,0 hPa 0,0 l/m 0 min 0 min 0 W/m 6,4 km/h (2 Bft) 97,62 %
10.10.2019 20:42 12,9 C 11,7 C 11,1 C 85 % 1015,9 hPa 0,0 l/m 0 min 0 min 0 W/m 6,4 km/h (2 Bft) 97,96 %
10.10.2019 20:44 12,9 C 11,7 C 11,1 C 85 % 1015,9 hPa 0,0 l/m 0 min 0 min 0 W/m 12,9 km/h (3 Bft) 98,00 %
10.10.2019 20:46 12,8 C 11,7 C 11,1 C 85 % 1015,9 hPa 0,0 l/m 0 min 0 min 0 W/m 16,1 km/h (3 Bft) 97,83 %
10.10.2019 20:48 12,8 C 11,7 C 11,1 C 85 % 1015,9 hPa 0,0 l/m 0 min 0 min 0 W/m 19,3 km/h (3 Bft) 97,87 %
10.10.2019 20:50 12,8 C 11,7 C 11,1 C 85 % 1015,9 hPa 0,0 l/m 0 min 0 min 0 W/m 16,1 km/h (3 Bft) 97,87 %
10.10.2019 20:52 12,8 C 11,7 C 11,1 C 85 % 1016,0 hPa 0,0 l/m 0 min 0 min 0 W/m 19,3 km/h (3 Bft) 97,87 %
10.10.2019 20:54 12,8 C 11,7 C 11,1 C 85 % 1016,0 hPa 0,0 l/m 0 min 0 min 0 W/m 25,7 km/h (4 Bft) 95,74 %
10.10.2019 20:56 12,7 C 11,7 C 11,1 C 85 % 1016,1 hPa 0,0 l/m 0 min 0 min 0 W/m 19,3 km/h (3 Bft) 95,65 %
10.10.2019 20:58 12,7 C 11,7 C 11,1 C 86 % 1016,1 hPa 0,0 l/m 0 min 0 min 0 W/m 25,7 km/h (4 Bft) 97,87 %
10.10.2019 21:00 12,7 C 11,7 C 11,1 C 86 % 1016,0 hPa 0,0 l/m 0 min 0 min 0 W/m 22,5 km/h (4 Bft) 91,49 %
10.10.2019 21:02 12,7 C 11,7 C 11,1 C 86 % 1016,0 hPa 0,0 l/m 0 min 0 min 0 W/m 29,0 km/h (5 Bft) 97,87 %
10.10.2019 21:04 12,7 C 11,7 C 11,1 C 86 % 1016,1 hPa 0,0 l/m 0 min 0 min 0 W/m 12,9 km/h (3 Bft) 95,74 %
10.10.2019 21:06 12,7 C 11,7 C 11,1 C 86 % 1016,1 hPa 0,0 l/m 0 min 0 min 0 W/m 12,9 km/h (3 Bft) 95,74 %
10.10.2019 21:08 12,7 C 11,7 C 11,1 C 86 % 1016,0 hPa 0,0 l/m 0 min 0 min 0 W/m 29,0 km/h (5 Bft) 95,74 %
10.10.2019 21:10 12,7 C 11,7 C 11,1 C 86 % 1016,0 hPa 0,0 l/m 0 min 0 min 0 W/m 25,7 km/h (4 Bft) 97,83 %
10.10.2019 21:12 12,6 C 11,7 C 11,1 C 86 % 1016,0 hPa 0,0 l/m 0 min 0 min 0 W/m 22,5 km/h (4 Bft) 93,62 %
10.10.2019 21:14 12,6 C 11,7 C 11,1 C 87 % 1016,0 hPa 0,0 l/m 0 min 0 min 0 W/m 19,3 km/h (3 Bft) 97,87 %
10.10.2019 21:16 12,6 C 11,7 C 11,1 C 87 % 1016,0 hPa 0,0 l/m 0 min 0 min 0 W/m 16,1 km/h (3 Bft) 97,87 %
10.10.2019 21:18 12,6 C 11,7 C 11,1 C 87 % 1016,0 hPa 0,0 l/m 0 min 0 min 0 W/m 12,9 km/h (3 Bft) 97,87 %
10.10.2019 21:20 12,6 C 11,7 C 11,1 C 87 % 1016,1 hPa 0,0 l/m 0 min 0 min 0 W/m 12,9 km/h (3 Bft) 95,65 %
10.10.2019 21:22 12,6 C 11,7 C 11,1 C 87 % 1016,1 hPa 0,0 l/m 0 min 0 min 0 W/m 6,4 km/h (2 Bft) 100,00 %
10.10.2019 21:24 12,6 C 11,7 C 11,1 C 87 % 1016,0 hPa 0,0 l/m 0 min 0 min 0 W/m 16,1 km/h (3 Bft) 97,87 %
10.10.2019 21:26 12,6 C 11,7 C 11,1 C 87 % 1016,0 hPa 0,0 l/m 0 min 0 min 0 W/m 19,3 km/h (3 Bft) 93,62 %
10.10.2019 21:28 12,6 C 11,7 C 11,1 C 87 % 1016,0 hPa 0,0 l/m 0 min 0 min 0 W/m 16,1 km/h (3 Bft) 95,74 %
10.10.2019 21:30 12,6 C 11,7 C 11,1 C 87 % 1016,1 hPa 0,0 l/m 0 min 0 min 0 W/m 19,3 km/h (3 Bft) 93,62 %
10.10.2019 21:32 12,6 C 11,7 C 11,1 C 88 % 1016,1 hPa 0,0 l/m 0 min 0 min 0 W/m 6,4 km/h (2 Bft) 95,65 %
10.10.2019 21:34 12,6 C 11,7 C 11,1 C 88 % 1016,1 hPa 0,0 l/m 0 min 0 min 0 W/m 22,5 km/h (4 Bft) 95,74 %
10.10.2019 21:36 12,6 C 11,7 C 11,1 C 88 % 1016,1 hPa 0,0 l/m 0 min 0 min 0 W/m 16,1 km/h (3 Bft) 95,74 %
10.10.2019 21:38 12,6 C 11,7 C 11,1 C 88 % 1016,1 hPa 0,0 l/m 0 min 0 min 0 W/m 16,1 km/h (3 Bft) 95,74 %
10.10.2019 21:40 12,6 C 11,7 C 11,7 C 88 % 1016,2 hPa 0,0 l/m 0 min 0 min 0 W/m 19,3 km/h (3 Bft) 95,74 %
10.10.2019 21:42 12,6 C 11,7 C 11,7 C 88 % 1016,1 hPa 0,0 l/m 0 min 0 min 0 W/m 22,5 km/h (4 Bft) 97,87 %
10.10.2019 21:44 12,6 C 11,7 C 11,7 C 88 % 1016,2 hPa 0,0 l/m 0 min 0 min 0 W/m 19,3 km/h (3 Bft) 95,65 %
10.10.2019 21:46 12,6 C 11,7 C 11,7 C 88 % 1016,2 hPa 0,0 l/m 0 min 0 min 0 W/m 19,3 km/h (3 Bft) 93,62 %
10.10.2019 21:48 12,6 C 11,7 C 11,7 C 88 % 1016,2 hPa 0,0 l/m 0 min 0 min 0 W/m 19,3 km/h (3 Bft) 95,74 %
10.10.2019 21:50 12,6 C 11,7 C 11,7 C 88 % 1016,2 hPa 0,0 l/m 0 min 0 min 0 W/m 16,1 km/h (3 Bft) 95,74 %
10.10.2019 21:52 12,6 C 11,7 C 11,7 C 88 % 1016,2 hPa 0,0 l/m 0 min 0 min 0 W/m 22,5 km/h (4 Bft) 93,62 %
10.10.2019 21:54 12,6 C 11,7 C 11,7 C 88 % 1016,2 hPa 0,0 l/m 0 min 0 min 0 W/m 16,1 km/h (3 Bft) 95,74 %
10.10.2019 21:56 12,6 C 11,7 C 11,7 C 88 % 1016,2 hPa 0,0 l/m 0 min 0 min 0 W/m 19,3 km/h (3 Bft) 97,83 %
10.10.2019 21:58 12,6 C 12,2 C 11,7 C 88 % 1016,3 hPa 0,0 l/m 0 min 0 min 0 W/m 16,1 km/h (3 Bft) 97,87 %
10.10.2019 22:00 12,6 C 12,2 C 11,7 C 88 % 1016,3 hPa 0,0 l/m 0 min 0 min 0 W/m 19,3 km/h (3 Bft) 97,87 %
10.10.2019 22:02 12,6 C 12,2 C 11,7 C 88 % 1016,4 hPa 0,0 l/m 0 min 0 min 0 W/m 16,1 km/h (3 Bft) 97,87 %
10.10.2019 22:04 12,6 C 12,2 C 11,7 C 88 % 1016,4 hPa 0,0 l/m 0 min 0 min 0 W/m 22,5 km/h (4 Bft) 97,87 %
10.10.2019 22:06 12,6 C 12,2 C 11,7 C 88 % 1016,4 hPa 0,0 l/m 0 min 0 min 0 W/m 22,5 km/h (4 Bft) 97,83 %
10.10.2019 22:08 12,6 C 12,2 C 11,7 C 88 % 1016,4 hPa 0,0 l/m 0 min 0 min 0 W/m 16,1 km/h (3 Bft) 97,87 %
10.10.2019 22:10 12,6 C 12,2 C 11,7 C 88 % 1016,3 hPa 0,0 l/m 0 min 0 min 0 W/m 22,5 km/h (4 Bft) 97,87 %
10.10.2019 22:15 12,7 C 12,2 C 11,7 C 88 % 1016,3 hPa 0,0 l/m 0 min 0 min 0 W/m 19,3 km/h (3 Bft) 100,00 %
10.10.2019 22:20 12,7 C 12,2 C 11,7 C 88 % 1016,2 hPa 0,0 l/m 0 min 0 min 0 W/m 25,7 km/h (4 Bft) 100,00 %
10.10.2019 22:25 12,7 C 12,2 C 11,7 C 88 % 1016,2 hPa 0,0 l/m 0 min 0 min 0 W/m 19,3 km/h (3 Bft) 100,00 %
10.10.2019 22:30 12,7 C 12,2 C 11,7 C 88 % 1016,2 hPa 0,0 l/m 0 min 0 min 0 W/m 19,3 km/h (3 Bft) 100,00 %
10.10.2019 22:35 12,8 C 12,2 C 11,7 C 88 % 1016,2 hPa 0,0 l/m 0 min 0 min 0 W/m 25,7 km/h (4 Bft) 100,00 %
10.10.2019 22:40 12,8 C 12,2 C 11,7 C 88 % 1016,1 hPa 0,0 l/m 0 min 0 min 0 W/m 19,3 km/h (3 Bft) 100,00 %
10.10.2019 22:45 12,8 C 12,2 C 11,7 C 88 % 1016,1 hPa 0,0 l/m 0 min 0 min 0 W/m 16,1 km/h (3 Bft) 100,00 %
10.10.2019 22:50 12,8 C 12,2 C 11,7 C 88 % 1016,2 hPa 0,0 l/m 0 min 0 min 0 W/m 19,3 km/h (3 Bft) 100,00 %
10.10.2019 22:55 12,8 C 12,2 C 11,7 C 88 % 1016,0 hPa 0,0 l/m 0 min 0 min 0 W/m 22,5 km/h (4 Bft) 100,00 %
10.10.2019 23:00 12,8 C 12,2 C 11,7 C 88 % 1016,0 hPa 0,0 l/m 0 min 0 min 0 W/m 19,3 km/h (3 Bft) 100,00 %
10.10.2019 23:05 12,8 C 12,2 C 11,7 C 88 % 1015,9 hPa 0,0 l/m 0 min 0 min 0 W/m 19,3 km/h (3 Bft) 100,00 %
10.10.2019 23:10 12,8 C 11,7 C 11,7 C 88 % 1016,2 hPa 0,0 l/m 0 min 0 min 0 W/m 22,5 km/h (4 Bft) 100,00 %
10.10.2019 23:15 12,8 C 12,2 C 11,7 C 88 % 1016,2 hPa 0,0 l/m 0 min 0 min 0 W/m 22,5 km/h (4 Bft) 99,12 %
10.10.2019 23:20 12,8 C 12,2 C 11,7 C 88 % 1016,2 hPa 0,0 l/m 0 min 0 min 0 W/m 19,3 km/h (3 Bft) 97,37 %
10.10.2019 23:25 12,8 C 12,2 C 11,7 C 88 % 1016,2 hPa 0,0 l/m 0 min 0 min 0 W/m 25,7 km/h (4 Bft) 100,00 %
10.10.2019 23:30 12,9 C 12,2 C 11,7 C 88 % 1016,1 hPa 0,0 l/m 0 min 0 min 0 W/m 16,1 km/h (3 Bft) 100,00 %
10.10.2019 23:35 12,9 C 12,2 C 11,7 C 87 % 1016,2 hPa 0,0 l/m 0 min 0 min 0 W/m 16,1 km/h (3 Bft) 100,00 %
10.10.2019 23:40 13,0 C 12,2 C 12,2 C 88 % 1016,2 hPa 0,0 l/m 0 min 0 min 0 W/m 19,3 km/h (3 Bft) 100,00 %
10.10.2019 23:45 13,1 C 12,8 C 12,2 C 87 % 1016,3 hPa 0,0 l/m 0 min 0 min 0 W/m 19,3 km/h (3 Bft) 100,00 %
10.10.2019 23:50 13,1 C 12,8 C 12,2 C 87 % 1016,2 hPa 0,0 l/m 0 min 0 min 0 W/m 19,3 km/h (3 Bft) 87,72 %
10.10.2019 23:55 13,2 C 12,8 C 12,2 C 86 % 1016,2 hPa 0,0 l/m 0 min 0 min 0 W/m 25,7 km/h (4 Bft) 88,60 %
_ Min-Zeit 06:48 04:28 04:24 16:22 01:10 - - - - 19:08 04:06
Minimum _ 9,4 C 8,3 C 8,3 C 66 % 1007,8 hPa - - - - 3,2 km/h (1 Bft) 59,57 %
_ Max-Zeit 16:20 13:08 13:22 08:00 22:02 04:22 12:08 04:20 13:12 12:14 00:02
Maximum _ 16,4 C 20,6 C 16,7 C 96 % 1016,4 hPa 0,2 l/m 4 min 2 min 751 W/m 41,8 km/h
NW (6 Bft)
100,00 %
Durchschnitt _ 12,5 C 12,5 C 11,3 C 85 % 1012,3 hPa #0,2 l/m #4:18 h #12 min. 231 W/m 16,8 km/h (3 Bft) 97,43 %
© 2019 W. Hausmann